KC5DAQ-22 Weather Reports


time (UTC)temp
F
wind
direction
speed
knots
gust
knots
rain 1hr
in
rain 24hr
in
rain mn
in
humidity
%
barometer
mb
20260505160906 79 97 3.5 9.6 0.00 0.00 0.00 84 1007.7
20260505160806 79 110 3.5 9.6 0.00 0.00 0.00 84 1007.7
20260505160707 79 94 5.2 9.6 0.00 0.00 0.00 83 1007.7
20260505160607 79 96 5.2 9.6 0.00 0.00 0.00 84 1007.7
20260505160507 79 113 3.5 9.6 0.00 0.00 0.00 84 1007.8
20260505160407 79 86 3.5 9.6 0.00 0.00 0.00 84 1007.8
20260505160307 79 86 5.2 9.6 0.00 0.00 0.00 83 1007.8
20260505160206 79 92 5.2 9.6 0.00 0.00 0.00 83 1007.7
20260505160107 79 103 5.2 9.6 0.00 0.00 0.00 83 1007.7
20260505153303 78 155 7.0 10.4 0.00 0.00 0.00 83 1007.5
20260505153202 78 125 7.0 10.4 0.00 0.00 0.00 83 1007.6
20260505153103 78 125 5.2 10.4 0.00 0.00 0.00 83 1007.6
20260505153004 78 130 5.2 10.4 0.00 0.00 0.00 83 1007.6
20260505152903 78 87 5.2 10.4 0.00 0.00 0.00 83 1007.6
20260505152802 78 104 5.2 10.4 0.00 0.00 0.00 83 1007.6
20260505152703 78 107 5.2 10.4 0.00 0.00 0.00 83 1007.6
20260505152603 78 109 4.3 10.4 0.00 0.00 0.00 83 1007.6
20260505152503 78 110 5.2 10.4 0.00 0.00 0.00 83 1007.5
20260505152403 78 78 6.1 10.4 0.00 0.00 0.00 83 1007.6
20260505152305 78 103 5.2 10.4 0.00 0.00 0.00 83 1007.5
20260505152203 78 94 6.1 10.4 0.00 0.00 0.00 83 1007.6
20260505152103 78 111 6.1 10.4 0.00 0.00 0.00 83 1007.5
20260505152003 78 117 5.2 10.4 0.00 0.00 0.00 83 1007.5
20260505151902 78 117 5.2 11.3 0.00 0.00 0.00 83 1007.5
20260505151802 78 100 4.3 11.3 0.00 0.00 0.00 84 1007.4
20260505151703 78 87 4.3 11.3 0.00 0.00 0.00 84 1007.4
20260505151603 78 124 4.3 13.0 0.00 0.00 0.00 84 1007.5
20260505151503 78 94 3.5 13.0 0.00 0.00 0.00 84 1007.5
20260505151403 78 140 5.2 13.0 0.00 0.00 0.00 84 1007.4
20260505151303 78 118 5.2 13.0 0.00 0.00 0.00 84 1007.5
20260505151203 78 96 6.1 13.0 0.00 0.00 0.00 84 1007.5
20260505151103 78 86 6.1 13.0 0.00 0.00 0.00 84 1007.5
20260505151004 78 123 7.0 13.0 0.00 0.00 0.00 84 1007.5
20260505150903 78 94 6.1 13.0 0.00 0.00 0.00 84 1007.5
20260505150803 78 102 7.0 13.0 0.00 0.00 0.00 84 1007.5
20260505150702 78 82 7.8 13.0 0.00 0.00 0.00 84 1007.5
20260505150604 78 134 7.0 13.0 0.00 0.00 0.00 84 1007.5
20260505150502 78 124 6.1 12.2 0.00 0.00 0.00 84 1007.6
20260505150402 78 111 6.1 12.2 0.00 0.00 0.00 84 1007.6
20260505150304 78 106 5.2 12.2 0.00 0.00 0.00 84 1007.6
20260505150203 78 86 4.3 12.2 0.00 0.00 0.00 84 1007.5
20260505140602 77 100 5.2 15.6 0.00 0.00 0.00 86 1007.2
20260505140502 77 83 6.1 15.6 0.00 0.00 0.00 86 1007.2
20260505140403 77 113 7.8 15.6 0.00 0.00 0.00 87 1007.3
20260505140301 77 93 8.7 15.6 0.00 0.00 0.00 87 1007.4
20260505140203 76 87 7.0 13.9 0.00 0.00 0.00 87 1007.4
20260505130212 75 65 5.2 13.9 0.00 0.00 0.00 88 1007.1
20260505130111 75 79 5.2 13.9 0.00 0.00 0.00 88 1007.0
20260505125003 75 82 4.3 9.6 0.00 0.00 0.00 89 1007.0
20260505124903 75 104 3.5 8.7 0.00 0.00 0.00 89 1007.0
20260505124803 75 76 3.5 8.7 0.00 0.00 0.00 89 1007.0
20260505124704 75 69 3.5 8.7 0.00 0.00 0.00 89 1007.1
20260505124603 75 96 3.5 8.7 0.00 0.00 0.00 89 1007.0
20260505124502 75 99 3.5 10.4 0.00 0.00 0.00 89 1007.0
20260505124403 74 73 3.5 10.4 0.00 0.00 0.00 89 1007.0
20260505124304 74 72 3.5 10.4 0.00 0.00 0.00 89 1007.0
20260505124202 74 80 4.3 10.4 0.00 0.00 0.00 89 1007.1
20260505124101 74 79 3.5 10.4 0.00 0.00 0.00 89 1007.1
20260505124002 74 87 3.5 10.4 0.00 0.00 0.00 89 1007.1
20260505123903 74 76 3.5 10.4 0.00 0.00 0.00 90 1007.1
20260505123802 74 47 3.5 10.4 0.00 0.00 0.00 90 1007.1
20260505123702 74 0 5.2 10.4 0.00 0.00 0.00 89 1007.1
20260505123604 74 0 6.1 10.4 0.00 0.00 0.00 89 1007.1
20260505123504 74 71 4.3 8.7 0.00 0.00 0.00 89 1007.2
20260505123401 74 72 4.3 8.7 0.00 0.00 0.00 89 1007.1
20260505123304 74 45 4.3 8.7 0.00 0.00 0.00 89 1007.1
20260505123203 74 45 3.5 8.7 0.00 0.00 0.00 89 1007.1
20260505123104 74 25 4.3 8.7 0.00 0.00 0.00 89 1007.0
20260505123003 74 45 4.3 8.7 0.00 0.00 0.00 90 1007.0
20260505122904 74 24 3.5 8.7 0.00 0.00 0.00 90 1007.0
20260505122804 74 42 3.5 8.7 0.00 0.00 0.00 90 1007.1
20260505122702 74 0 2.6 8.7 0.00 0.00 0.00 90 1007.2
20260505122602 74 35 2.6 6.1 0.00 0.00 0.00 90 1007.1
20260505122503 74 0 3.5 6.1 0.00 0.00 0.00 90 1007.1
20260505122403 74 48 3.5 6.1 0.00 0.00 0.00 90 1007.0
20260505122305 74 34 2.6 6.1 0.00 0.00 0.00 90 1007.0
20260505122203 74 47 2.6 6.1 0.00 0.00 0.00 90 1007.1
20260505122102 74 39 2.6 6.1 0.00 0.00 0.00 90 1007.1
20260505122002 74 31 1.7 6.1 0.00 0.00 0.00 90 1007.2
20260505121903 74 37 2.6 6.1 0.00 0.00 0.00 90 1007.1
20260505121801 74 0 3.5 8.7 0.00 0.00 0.00 90 1007.1
20260505121702 74 0 2.6 8.7 0.00 0.00 0.00 90 1007.0
20260505121602 74 41 1.7 8.7 0.00 0.00 0.00 90 1007.0
20260505121502 74 0 2.6 8.7 0.00 0.00 0.00 90 1007.0
20260505121401 74 42 2.6 8.7 0.00 0.00 0.00 90 1007.0
20260505121301 74 34 2.6 8.7 0.00 0.00 0.00 90 1006.9
20260505121203 74 28 2.6 9.6 0.00 0.00 0.00 89 1006.8
20260505121101 74 32 3.5 9.6 0.00 0.00 0.00 89 1006.7
20260505121001 74 45 3.5 9.6 0.00 0.00 0.00 89 1006.7
20260505120901 74 32 3.5 9.6 0.00 0.00 0.00 89 1006.7
20260505120802 74 27 3.5 9.6 0.00 0.00 0.00 89 1006.6
20260505120701 74 35 3.5 9.6 0.00 0.00 0.00 89 1006.5
20260505120601 74 45 3.5 13.0 0.00 0.00 0.00 89 1006.6
20260505120503 74 41 3.5 13.0 0.00 0.00 0.00 89 1006.6
20260505120401 74 0 5.2 13.0 0.00 0.00 0.00 89 1006.5
20260505120300 74 0 5.2 13.0 0.00 0.00 0.00 89 1006.6
20260505120202 74 41 3.5 13.0 0.00 0.00 0.00 89 1006.6
20260505120002 74 37 4.3 13.0 0.00 0.00 0.00 89 1006.7
20260505115901 74 44 4.3 13.0 0.00 0.00 0.00 89 1006.6
20260505115802 74 45 4.3 13.0 0.00 0.00 0.00 89 1006.6
20260505115702 74 39 4.3 13.0 0.00 0.00 0.00 89 1006.6
20260505115601 74 37 3.5 12.2 0.00 0.00 0.00 89 1006.5
20260505115502 74 0 3.5 12.2 0.00 0.00 0.00 89 1006.6
20260505115402 74 30 3.5 12.2 0.00 0.00 0.00 89 1006.6
20260505115300 74 52 4.3 12.2 0.00 0.00 0.00 89 1006.6
20260505115200 74 49 5.2 12.2 0.00 0.00 0.00 89 1006.6
20260505115103 74 44 5.2 12.2 0.00 0.00 0.00 89 1006.6
20260505115000 74 34 4.3 12.2 0.00 0.00 0.00 89 1006.7
20260505114901 74 56 5.2 12.2 0.00 0.00 0.00 89 1006.7
20260505114801 74 44 7.8 12.2 0.00 0.00 0.00 89 1006.8
20260505114702 74 0 7.0 12.2 0.00 0.00 0.00 89 1006.9
20260505114601 74 41 5.2 12.2 0.00 0.00 0.00 89 1006.9
20260505114500 74 0 5.2 12.2 0.00 0.00 0.00 89 1006.9
20260505114402 74 41 5.2 12.2 0.00 0.00 0.00 89 1006.9
20260505114301 73 0 5.2 12.2 0.00 0.00 0.00 89 1007.0
20260505114201 74 0 4.3 10.4 0.00 0.00 0.00 89 1007.0
20260505114100 74 0 4.3 10.4 0.00 0.00 0.00 89 1007.1
20260505114000 73 0 4.3 10.4 0.00 0.00 0.00 89 1007.1
20260505113900 73 0 3.5 10.4 0.00 0.00 0.00 89 1007.0
20260505113800 74 0 1.7 10.4 0.00 0.00 0.00 89 1007.0
20260505113700 73 0 3.5 10.4 0.00 0.00 0.00 89 1007.1
20260505113600 73 32 5.2 10.4 0.00 0.00 0.00 89 1006.9
20260505113501 73 28 3.5 9.6 0.00 0.00 0.00 89 1007.0
20260505113401 73 34 3.5 9.6 0.00 0.00 0.00 89 1006.9
20260505113300 73 42 4.3 9.6 0.00 0.00 0.00 89 1006.9
20260505113200 73 41 4.3 9.6 0.00 0.00 0.00 90 1006.9
20260505113100 73 0 4.3 9.6 0.00 0.00 0.00 89 1006.9
20260505113002 73 0 5.2 9.6 0.00 0.00 0.00 89 1006.9
20260505112901 73 39 4.3 9.6 0.00 0.00 0.00 89 1006.9
20260505112800 73 47 4.3 9.6 0.00 0.00 0.00 89 1006.9
20260505112701 73 39 3.5 7.8 0.00 0.00 0.00 89 1006.8
20260505112602 73 47 3.5 7.8 0.00 0.00 0.00 89 1006.8
20260505112501 73 0 4.3 7.8 0.00 0.00 0.00 89 1006.7
20260505112400 73 44 3.5 8.7 0.00 0.00 0.00 89 1006.7
20260505112301 73 41 2.6 8.7 0.00 0.00 0.00 89 1006.7
20260505112200 73 42 1.7 8.7 0.00 0.00 0.00 89 1006.7
20260505112100 73 35 3.5 8.7 0.00 0.00 0.00 89 1006.7
20260505112000 73 41 4.3 8.7 0.00 0.00 0.00 89 1006.8
20260505111900 73 45 3.5 8.7 0.00 0.00 0.00 89 1006.7
20260505111800 73 41 3.5 8.7 0.00 0.00 0.00 90 1006.7
20260505111701 73 44 2.6 8.7 0.00 0.00 0.00 89 1006.7
20260505111602 73 42 3.5 8.7 0.00 0.00 0.00 89 1006.7
20260505111501 73 0 3.5 8.7 0.00 0.00 0.00 89 1006.7
20260505111400 73 42 3.5 7.8 0.00 0.00 0.00 89 1006.8
20260505111301 73 47 2.6 6.1 0.00 0.00 0.00 89 1006.7
20260505111201 73 32 1.7 7.8 0.00 0.00 0.00 89 1006.7
20260505111101 73 31 2.6 7.8 0.00 0.00 0.00 89 1006.6
20260505111002 73 32 1.7 8.7 0.00 0.00 0.00 89 1006.6
20260505110902 73 25 0.9 8.7 0.00 0.00 0.00 90 1006.5
20260505110800 73 32 1.7 8.7 0.00 0.00 0.00 90 1006.5
20260505110659 73 30 2.6 8.7 0.00 0.00 0.00 90 1006.6
20260505110559 73 21 2.6 8.7 0.00 0.00 0.00 90 1006.5
20260505110500 73 42 3.5 8.7 0.00 0.00 0.00 89 1006.5
20260505110359 73 47 3.5 8.7 0.00 0.00 0.00 89 1006.6
20260505110259 73 48 2.6 8.7 0.00 0.00 0.00 90 1006.7
20260505110201 73 34 3.5 8.7 0.00 0.00 0.00 90 1006.7
20260505102159 73 35 1.7 11.3 0.00 0.00 0.00 90 1006.6
20260505102101 73 35 3.5 11.3 0.00 0.00 0.00 90 1006.6
20260505102000 73 48 5.2 11.3 0.00 0.00 0.00 90 1006.7
20260505101858 73 45 4.3 11.3 0.00 0.00 0.00 90 1006.7
20260505101759 73 44 3.5 6.1 0.00 0.00 0.00 90 1006.6
20260505101659 73 27 2.6 4.3 0.00 0.00 0.00 90 1006.6
20260505101558 73 31 2.6 4.3 0.00 0.00 0.00 90 1006.7
20260505101459 73 34 1.7 4.3 0.00 0.00 0.00 90 1006.7
20260505101359 73 37 0.9 7.8 0.00 0.00 0.00 89 1006.8
20260505101258 73 17 1.7 8.7 0.00 0.00 0.00 89 1006.8
20260505101158 73 31 2.6 9.6 0.00 0.00 0.00 89 1006.8
20260505101058 73 35 2.6 9.6 0.00 0.00 0.00 90 1006.8
20260505100959 73 42 2.6 9.6 0.00 0.00 0.00 90 1006.9
20260505100900 73 44 1.7 9.6 0.00 0.00 0.00 90 1006.9
20260505100758 73 44 0.9 9.6 0.00 0.00 0.00 90 1006.9
20260505100659 73 49 1.7 9.6 0.00 0.00 0.00 90 1006.9
20260505100558 73 41 3.5 9.6 0.00 0.00 0.00 90 1006.9
20260505100458 73 44 4.3 9.6 0.00 0.00 0.00 90 1006.9
20260505100359 73 37 4.3 9.6 0.00 0.00 0.00 89 1006.9
20260505100259 73 39 3.5 9.6 0.00 0.00 0.00 90 1006.9
20260505100158 73 42 3.5 10.4 0.00 0.00 0.00 90 1006.9
20260505100058 72 48 3.5 10.4 0.00 0.00 0.00 90 1006.9
20260505100000 72 44 2.6 10.4 0.00 0.00 0.00 90 1006.9
20260505095858 72 48 1.7 10.4 0.00 0.00 0.00 90 1006.9
20260505095759 72 34 1.7 10.4 0.00 0.00 0.00 90 1006.8
20260505095700 72 39 2.6 10.4 0.00 0.00 0.00 90 1006.9
20260505095559 72 37 3.5 10.4 0.00 0.00 0.00 90 1006.9
20260505095458 72 47 3.5 10.4 0.00 0.00 0.00 90 1006.8
20260505095358 72 28 5.2 10.4 0.00 0.00 0.00 90 1006.8
20260505095300 72 42 5.2 10.4 0.00 0.00 0.00 90 1006.9
20260505095157 72 47 3.5 9.6 0.00 0.00 0.00 90 1006.9
20260505095058 72 35 2.6 6.1 0.00 0.00 0.00 90 1006.8
20260505094959 72 31 3.5 6.1 0.00 0.00 0.00 90 1006.8
20260505094859 72 38 3.5 6.1 0.00 0.00 0.00 90 1006.8
20260505094758 72 35 2.6 6.1 0.00 0.00 0.00 90 1006.8
20260505094658 72 24 3.5 6.1 0.00 0.00 0.00 90 1006.8
20260505094559 72 35 2.6 6.1 0.00 0.00 0.00 90 1006.8
20260505094459 72 35 2.6 6.1 0.00 0.00 0.00 90 1006.8
20260505094358 72 38 2.6 6.1 0.00 0.00 0.00 90 1006.8
20260505094300 72 31 2.6 6.1 0.00 0.00 0.00 90 1006.7
20260505094157 72 30 2.6 6.1 0.00 0.00 0.00 90 1006.8
20260505094057 72 39 2.6 7.8 0.00 0.00 0.00 90 1006.8
20260505093959 72 39 1.7 7.8 0.00 0.00 0.00 90 1006.8
20260505093859 72 32 1.7 7.8 0.00 0.00 0.00 90 1006.8
20260505093757 72 39 2.6 7.8 0.00 0.00 0.00 90 1006.9
20260505093656 72 28 1.7 7.8 0.00 0.00 0.00 90 1006.9
20260505093555 72 37 1.7 7.8 0.00 0.00 0.00 90 1007.0
20260505093453 72 37 2.6 7.8 0.00 0.00 0.00 90 1007.0
20260505093351 72 38 1.7 7.8 0.00 0.00 0.00 90 1007.0
20260505093246 72 37 3.5 7.8 0.00 0.00 0.00 90 1007.0
20260505093144 72 37 3.5 7.8 0.00 0.00 0.00 90 1007.0
20260505093043 72 32 1.7 6.1 0.00 0.00 0.00 90 1007.0
20260505092942 72 32 1.7 6.1 0.00 0.00 0.00 90 1007.0
20260505092839 72 32 1.7 6.1 0.00 0.00 0.00 90 1007.0
20260505092738 72 37 1.7 6.1 0.00 0.00 0.00 90 1007.0
20260505092636 72 38 1.7 6.1 0.00 0.00 0.00 90 1007.0
20260505092536 72 30 1.7 6.1 0.00 0.00 0.00 90 1007.0
20260505092434 72 44 2.6 6.1 0.00 0.00 0.00 90 1007.0
20260505092333 72 35 2.6 6.1 0.00 0.00 0.00 90 1007.0
20260505092232 72 35 2.6 7.8 0.00 0.00 0.00 90 1007.1
20260505092133 72 37 2.6 7.8 0.00 0.00 0.00 90 1007.1
20260505092031 72 44 2.6 7.8 0.00 0.00 0.00 90 1007.1
20260505091930 72 42 2.6 7.8 0.00 0.00 0.00 90 1007.1
20260505091831 72 42 1.7 7.8 0.00 0.00 0.00 90 1007.0
20260505091732 72 38 1.7 7.8 0.00 0.00 0.00 90 1007.0
20260505091631 71 34 1.7 7.8 0.00 0.00 0.00 90 1007.0
20260505091529 72 34 2.6 7.8 0.00 0.00 0.00 90 1007.1
20260505091428 72 0 2.6 7.8 0.00 0.00 0.00 90 1007.0
20260505091326 71 44 1.7 7.8 0.00 0.00 0.00 90 1007.0
20260505091223 71 59 1.7 6.1 0.00 0.00 0.00 90 1007.1
20260505091124 71 39 2.6 6.1 0.00 0.00 0.00 90 1007.0
20260505091021 71 48 1.7 8.7 0.00 0.00 0.00 90 1007.1
20260505090920 72 37 1.7 8.7 0.00 0.00 0.00 90 1007.1
20260505090818 71 37 1.7 8.7 0.00 0.00 0.00 90 1007.1
20260505090718 72 45 1.7 8.7 0.00 0.00 0.00 90 1007.1
20260505090616 72 48 2.6 8.7 0.00 0.00 0.00 90 1007.1
20260505090513 71 31 3.5 8.7 0.00 0.00 0.00 90 1007.1
20260505090413 71 35 3.5 8.7 0.00 0.00 0.00 89 1007.0
20260505090311 72 37 2.6 8.7 0.00 0.00 0.00 89 1007.1
20260505090210 71 31 3.5 8.7 0.00 0.00 0.00 89 1007.1
20260505090108 71 37 3.5 8.7 0.00 0.00 0.00 89 1007.1
20260505090007 71 38 2.6 7.8 0.00 0.00 0.00 89 1007.2
20260505085907 72 42 1.7 7.8 0.00 0.00 0.00 89 1007.1
20260505085805 72 34 2.6 7.8 0.00 0.00 0.00 89 1007.1
20260505085704 72 39 2.6 7.8 0.00 0.00 0.00 89 1007.1
20260505085602 72 27 1.7 7.8 0.00 0.00 0.00 89 1007.1
20260505085505 72 41 3.5 7.8 0.00 0.00 0.00 89 1007.1
20260505085402 72 38 3.5 7.8 0.00 0.00 0.00 89 1007.0
20260505085304 72 18 3.5 7.8 0.00 0.00 0.00 89 1007.1
20260505085202 72 39 3.5 7.8 0.00 0.00 0.00 89 1007.1
20260505085103 72 45 3.5 7.8 0.00 0.00 0.00 89 1007.1
20260505085003 72 34 2.6 7.8 0.00 0.00 0.00 89 1007.1
20260505084902 72 35 2.6 7.8 0.00 0.00 0.00 89 1007.1
20260505084804 72 41 2.6 7.8 0.00 0.00 0.00 89 1007.0
20260505084702 72 38 2.6 7.8 0.00 0.00 0.00 89 1007.0
20260505084602 72 42 3.5 7.8 0.00 0.00 0.00 89 1006.9
20260505084503 72 38 3.5 7.8 0.00 0.00 0.00 89 1007.0
20260505084403 72 20 3.5 7.8 0.00 0.00 0.00 89 1007.1
20260505084302 72 32 3.5 7.8 0.00 0.00 0.00 89 1007.0
20260505084202 72 41 3.5 7.8 0.00 0.00 0.00 89 1007.1
20260505084104 72 45 2.6 5.2 0.00 0.00 0.00 89 1007.1
20260505084003 72 45 2.6 5.2 0.00 0.00 0.00 89 1007.1
20260505083903 72 24 2.6 4.3 0.00 0.00 0.00 89 1007.1
20260505083802 72 32 2.6 4.3 0.00 0.00 0.00 89 1007.2
20260505083703 72 44 2.6 4.3 0.00 0.00 0.00 89 1007.2
20260505083603 72 37 2.6 4.3 0.00 0.00 0.00 89 1007.2
20260505083503 72 47 2.6 5.2 0.00 0.00 0.00 89 1007.3
20260505083402 72 49 2.6 7.8 0.00 0.00 0.00 89 1007.3
20260505083304 72 42 2.6 7.8 0.00 0.00 0.00 89 1007.3
20260505083202 72 41 2.6 7.8 0.00 0.00 0.00 88 1007.3
20260505083102 72 34 2.6 7.8 0.00 0.00 0.00 88 1007.3
20260505083005 72 38 1.7 7.8 0.00 0.00 0.00 88 1007.3
20260505082903 72 41 1.7 7.8 0.00 0.00 0.00 88 1007.3
20260505082802 72 37 2.6 7.8 0.00 0.00 0.00 88 1007.3
20260505082703 72 45 2.6 7.8 0.00 0.00 0.00 88 1007.2
20260505082603 72 48 4.3 7.8 0.00 0.00 0.00 88 1007.4
20260505082504 72 13 4.3 7.8 0.00 0.00 0.00 88 1007.4
20260505082404 72 32 3.5 7.8 0.00 0.00 0.00 88 1007.4
20260505082304 72 41 3.5 7.8 0.00 0.00 0.00 88 1007.4
20260505082202 72 37 3.5 7.8 0.00 0.00 0.00 88 1007.4
20260505082102 72 38 3.5 7.8 0.00 0.00 0.00 88 1007.3
20260505082002 72 45 3.5 7.8 0.00 0.00 0.00 88 1007.4
20260505081903 72 45 4.3 7.8 0.00 0.00 0.00 88 1007.4
20260505081802 72 44 3.5 7.8 0.00 0.00 0.00 88 1007.4
20260505081703 72 39 2.6 5.2 0.00 0.00 0.00 88 1007.4
20260505081603 72 23 2.6 5.2 0.00 0.00 0.00 88 1007.4
20260505081502 72 38 3.5 6.1 0.00 0.00 0.00 88 1007.4
20260505081401 72 38 2.6 8.7 0.00 0.00 0.00 88 1007.4
20260505081303 72 41 2.6 8.7 0.00 0.00 0.00 88 1007.4
20260505081201 72 51 3.5 10.4 0.00 0.00 0.00 88 1007.4
20260505081059 72 37 2.6 10.4 0.00 0.00 0.00 88 1007.4
20260505080958 72 39 3.5 10.4 0.00 0.00 0.00 88 1007.5
20260505080857 72 30 2.6 10.4 0.00 0.00 0.00 88 1007.6
20260505080756 72 45 3.5 10.4 0.00 0.00 0.00 88 1007.5
20260505080655 72 48 4.3 10.4 0.00 0.00 0.00 88 1007.5
20260505080556 72 39 5.2 10.4 0.00 0.00 0.00 88 1007.5
20260505080457 72 44 5.2 10.4 0.00 0.00 0.00 88 1007.6
20260505080356 72 47 5.2 10.4 0.00 0.00 0.00 88 1007.5
20260505080256 72 49 4.3 10.4 0.00 0.00 0.00 88 1007.5
20260505080157 72 35 3.5 9.6 0.00 0.00 0.00 88 1007.5
20260505080056 72 38 5.2 9.6 0.00 0.00 0.00 88 1007.5
20260505075955 72 35 5.2 9.6 0.00 0.00 0.00 88 1007.4
20260505075855 72 49 3.5 8.7 0.00 0.00 0.00 88 1007.5
20260505075756 72 44 3.5 8.7 0.00 0.00 0.00 88 1007.5
20260505075655 72 42 4.3 8.7 0.00 0.00 0.00 88 1007.4
20260505075556 72 42 3.5 8.7 0.00 0.00 0.00 88 1007.5
20260505075456 72 37 3.5 8.7 0.00 0.00 0.00 88 1007.5
20260505075355 72 32 3.5 8.7 0.00 0.00 0.00 88 1007.5
20260505075256 72 18 4.3 8.7 0.00 0.00 0.00 88 1007.6
20260505075157 72 45 4.3 8.7 0.00 0.00 0.00 88 1007.5
20260505075055 72 39 3.5 6.1 0.00 0.00 0.00 88 1007.5
20260505074956 72 54 2.6 6.1 0.00 0.00 0.00 88 1007.6
20260505074855 72 41 2.6 6.1 0.00 0.00 0.00 88 1007.6
20260505074757 71 45 3.5 6.1 0.00 0.00 0.00 88 1007.7
20260505074655 71 39 3.5 6.1 0.00 0.00 0.00 88 1007.5
20260505074555 71 44 2.6 6.1 0.00 0.00 0.00 88 1007.6
20260505074456 71 41 3.5 6.1 0.00 0.00 0.00 88 1007.6
20260505074356 71 42 2.6 6.1 0.00 0.00 0.00 88 1007.5
20260505074255 71 35 2.6 6.1 0.00 0.00 0.00 88 1007.6
20260505074154 71 44 2.6 6.1 0.00 0.00 0.00 88 1007.6
20260505074056 71 38 2.6 6.1 0.00 0.00 0.00 88 1007.5
20260505073955 71 52 3.5 6.1 0.00 0.00 0.00 88 1007.5
20260505073856 71 49 3.5 6.1 0.00 0.00 0.00 88 1007.5
20260505073755 71 48 3.5 6.1 0.00 0.00 0.00 88 1007.5
20260505073654 71 34 3.5 5.2 0.00 0.00 0.00 88 1007.5
20260505073555 71 37 3.5 5.2 0.00 0.00 0.00 88 1007.5
20260505073456 71 44 2.6 5.2 0.00 0.00 0.00 88 1007.5
20260505073356 71 42 1.7 5.2 0.00 0.00 0.00 88 1007.5
20260505073254 71 42 1.7 5.2 0.00 0.00 0.00 88 1007.6
20260505073155 71 45 1.7 5.2 0.00 0.00 0.00 88 1007.7
20260505073056 71 34 2.6 5.2 0.00 0.00 0.00 88 1007.6
20260505072955 71 35 2.6 5.2 0.00 0.00 0.00 88 1007.6
20260505072854 71 25 3.5 5.2 0.00 0.00 0.00 88 1007.7
20260505072755 71 25 3.5 5.2 0.00 0.00 0.00 88 1007.7
20260505072657 71 39 2.6 4.3 0.00 0.00 0.00 88 1007.7
20260505072554 71 38 1.7 4.3 0.00 0.00 0.00 88 1007.7
20260505072455 71 34 1.7 4.3 0.00 0.00 0.00 88 1007.8
20260505072355 71 45 1.7 4.3 0.00 0.00 0.00 88 1007.7
20260505072254 71 38 1.7 3.5 0.00 0.00 0.00 88 1007.7
20260505072155 71 39 1.7 3.5 0.00 0.00 0.00 88 1007.8
20260505072054 71 34 0.9 3.5 0.00 0.00 0.00 88 1007.7
20260505071955 71 34 1.7 3.5 0.00 0.00 0.00 88 1007.8
20260505071854 71 35 1.7 4.3 0.00 0.00 0.00 88 1007.8
20260505071754 71 39 0.9 4.3 0.00 0.00 0.00 88 1007.9
20260505071655 71 37 0.9 4.3 0.00 0.00 0.00 88 1007.9
20260505071555 71 35 0.9 4.3 0.00 0.00 0.00 88 1007.9
20260505071455 71 38 1.7 4.3 0.00 0.00 0.00 88 1007.9
20260505071355 71 45 1.7 4.3 0.00 0.00 0.00 87 1007.8
20260505071256 71 49 1.7 4.3 0.00 0.00 0.00 88 1007.9
20260505071155 71 49 1.7 6.1 0.00 0.00 0.00 88 1007.8
20260505071055 71 49 1.7 6.1 0.00 0.00 0.00 88 1007.8
20260505070935 71 31 1.7 6.1 0.00 0.00 0.00 88 1007.9
20260505070833 71 45 1.7 6.1 0.00 0.00 0.00 88 1007.9
20260505070731 71 34 1.7 6.1 0.00 0.00 0.00 87 1007.8
20260505070630 71 27 1.7 6.1 0.00 0.00 0.00 87 1007.8
20260505070532 71 49 1.7 6.1 0.00 0.00 0.00 87 1007.8
20260505070433 71 31 2.6 6.1 0.00 0.00 0.00 87 1007.8
20260505070331 71 47 2.6 6.1 0.00 0.00 0.00 87 1007.9
20260505070231 71 44 2.6 6.1 0.00 0.00 0.00 87 1007.9
20260505070132 71 45 2.6 6.1 0.00 0.00 0.00 87 1008.0
20260505070033 71 28 1.7 5.2 0.00 0.00 0.00 87 1007.9
20260505065931 71 38 1.7 8.7 0.00 0.00 0.00 87 1008.0
20260505065832 71 27 2.6 8.7 0.00 0.00 0.00 87 1008.0
20260505065732 71 30 2.6 8.7 0.00 0.00 0.00 87 1007.9
20260505065632 71 49 3.5 8.7 0.00 0.00 0.00 87 1007.9
20260505065531 71 45 3.5 8.7 0.00 0.00 0.00 87 1007.9
20260505065434 71 37 3.5 8.7 0.00 0.00 0.00 87 1007.9
20260505065333 71 24 2.6 8.7 0.00 0.00 0.00 87 1008.0
20260505065232 71 31 2.6 8.7 0.00 0.00 0.00 87 1007.9
20260505065131 71 42 3.5 8.7 0.00 0.00 0.00 87 1007.9
20260505065030 71 38 3.5 8.7 0.00 0.00 0.00 87 1007.9
20260505064931 71 39 3.5 6.1 0.00 0.00 0.00 87 1008.0
20260505064831 71 49 2.6 6.1 0.00 0.00 0.00 87 1008.0
20260505064732 71 27 1.7 6.1 0.00 0.00 0.00 87 1008.0
20260505064632 71 31 2.6 6.1 0.00 0.00 0.00 87 1008.0
20260505064530 71 28 3.5 6.1 0.00 0.00 0.00 87 1008.0
20260505064430 71 39 3.5 6.1 0.00 0.00 0.00 87 1008.0
20260505064332 71 30 1.7 6.1 0.00 0.00 0.00 87 1008.1
20260505064232 71 38 1.7 6.1 0.00 0.00 0.00 87 1008.1
20260505064131 71 32 2.6 6.1 0.00 0.00 0.00 87 1008.1
20260505064032 71 44 2.6 6.1 0.00 0.00 0.00 87 1008.2
20260505063931 71 34 2.6 6.1 0.00 0.00 0.00 87 1008.2
20260505063831 71 44 2.6 6.1 0.00 0.00 0.00 87 1008.3
20260505063732 71 38 2.6 6.1 0.00 0.00 0.00 87 1008.2
20260505063632 71 49 2.6 6.1 0.00 0.00 0.00 87 1008.3
20260505063530 71 41 1.7 6.1 0.00 0.00 0.00 87 1008.2
20260505063431 71 47 1.7 7.8 0.00 0.00 0.00 87 1008.3
20260505063333 71 45 2.6 7.8 0.00 0.00 0.00 87 1008.4
20260505063231 71 37 2.6 7.8 0.00 0.00 0.00 87 1008.4
20260505063131 71 44 3.5 7.8 0.00 0.00 0.00 87 1008.4
20260505063032 71 44 3.5 7.8 0.00 0.00 0.00 87 1008.3
20260505062932 71 37 2.6 7.8 0.00 0.00 0.00 87 1008.3
20260505062831 71 52 1.7 7.8 0.00 0.00 0.00 87 1008.3
20260505062731 71 45 2.6 7.8 0.00 0.00 0.00 87 1008.3
20260505062633 71 39 3.5 7.8 0.00 0.00 0.00 87 1008.3
20260505062531 71 45 4.3 7.8 0.00 0.00 0.00 87 1008.4
20260505062431 71 31 3.5 7.8 0.00 0.00 0.00 87 1008.4
20260505062331 71 54 2.6 6.1 0.00 0.00 0.00 87 1008.4
20260505062230 71 35 3.5 6.1 0.00 0.00 0.00 87 1008.4
20260505062131 71 38 3.5 6.1 0.00 0.00 0.00 87 1008.5
20260505062032 71 41 3.5 6.1 0.00 0.00 0.00 87 1008.5
20260505061931 71 47 3.5 6.1 0.00 0.00 0.00 87 1008.5
20260505061831 71 37 3.5 6.1 0.00 0.00 0.00 87 1008.5
20260505061731 71 45 3.5 6.1 0.00 0.00 0.00 87 1008.5
20260505061632 71 48 2.6 6.1 0.00 0.00 0.00 86 1008.6
20260505061532 71 41 1.7 6.1 0.00 0.00 0.00 86 1008.5
20260505061431 71 34 1.7 6.1 0.00 0.00 0.00 86 1008.6
20260505061332 71 18 2.6 6.1 0.00 0.00 0.00 86 1008.6
20260505061233 71 42 2.6 6.1 0.00 0.00 0.00 86 1008.6
20260505061130 71 35 2.6 6.1 0.00 0.00 0.00 86 1008.6
20260505061029 71 31 3.5 6.1 0.00 0.00 0.00 86 1008.6
20260505060927 71 52 3.5 6.1 0.00 0.00 0.00 86 1008.5
20260505060825 71 28 2.6 6.1 0.00 0.00 0.00 86 1008.6
20260505060725 71 45 2.6 6.1 0.00 0.00 0.00 86 1008.6
20260505060620 71 32 2.6 6.1 0.00 0.00 0.00 86 1008.5
20260505060521 71 41 1.7 6.1 0.00 0.00 0.00 86 1008.5
20260505060419 71 18 2.6 6.1 0.00 0.00 0.00 86 1008.5
20260505060319 71 61 3.5 6.1 0.00 0.00 0.00 86 1008.5
20260505060217 71 35 2.6 6.1 0.00 0.00 0.00 86 1008.5
20260505060115 71 41 2.6 6.1 0.00 0.00 0.00 86 1008.5
20260505060015 71 37 2.6 6.1 0.00 0.00 0.00 86 1008.6
20260505055913 71 35 2.6 6.1 0.00 0.00 0.00 86 1008.6
20260505055812 71 42 3.5 6.1 0.00 0.00 0.00 86 1008.5
20260505055710 71 45 3.5 6.1 0.00 0.00 0.00 86 1008.6
20260505055609 71 37 3.5 6.1 0.00 0.00 0.00 86 1008.5
20260505055507 71 47 2.6 6.1 0.00 0.00 0.00 86 1008.6
20260505055407 71 39 2.6 6.1 0.00 0.00 0.00 86 1008.6
20260505055307 71 34 3.5 6.1 0.00 0.00 0.00 86 1008.5
20260505055207 71 37 3.5 6.1 0.00 0.00 0.00 86 1008.5
20260505055104 71 41 2.6 6.1 0.00 0.00 0.00 86 1008.6
20260505055003 71 38 3.5 6.1 0.00 0.00 0.00 86 1008.5
20260505054902 71 49 3.5 6.1 0.00 0.00 0.00 86 1008.6
20260505054801 71 39 2.6 5.2 0.00 0.00 0.00 86 1008.6
20260505054703 71 38 2.6 5.2 0.00 0.00 0.00 86 1008.6
20260505054602 71 37 3.5 5.2 0.00 0.00 0.00 86 1008.6
20260505054504 71 38 2.6 5.2 0.00 0.00 0.00 85 1008.6
20260505054402 71 27 2.6 5.2 0.00 0.00 0.00 85 1008.6
20260505054303 71 25 2.6 5.2 0.00 0.00 0.00 85 1008.7
20260505054202 71 31 2.6 5.2 0.00 0.00 0.00 85 1008.7
20260505054104 71 42 2.6 5.2 0.00 0.00 0.00 85 1008.7
20260505054003 71 44 2.6 5.2 0.00 0.00 0.00 85 1008.7
20260505053902 71 37 2.6 5.2 0.00 0.00 0.00 85 1008.7
20260505053802 71 35 2.6 5.2 0.00 0.00 0.00 85 1008.7
20260505053703 71 32 2.6 5.2 0.00 0.00 0.00 85 1008.7
20260505053603 71 30 2.6 5.2 0.00 0.00 0.00 85 1008.7
20260505053502 71 44 1.7 5.2 0.00 0.00 0.00 85 1008.7
20260505053402 71 49 1.7 5.2 0.00 0.00 0.00 85 1008.8
20260505053303 71 41 1.7 5.2 0.00 0.00 0.00 85 1008.8
20260505053202 71 48 1.7 6.1 0.00 0.00 0.00 85 1008.8
20260505053103 71 38 1.7 6.1 0.00 0.00 0.00 85 1008.9
20260505053002 71 27 2.6 6.1 0.00 0.00 0.00 85 1008.9
20260505052903 71 42 3.5 6.1 0.00 0.00 0.00 85 1009.0
20260505052803 71 48 3.5 6.1 0.00 0.00 0.00 85 1008.9
20260505052702 71 42 2.6 6.1 0.00 0.00 0.00 85 1008.9
20260505052602 71 42 2.6 6.1 0.00 0.00 0.00 85 1008.9
20260505052502 71 52 2.6 6.1 0.00 0.00 0.00 85 1008.9
20260505052402 71 48 2.6 6.1 0.00 0.00 0.00 85 1008.9
20260505052304 71 45 2.6 6.1 0.00 0.00 0.00 85 1008.9
20260505052202 71 47 1.7 7.8 0.00 0.00 0.00 85 1008.9
20260505052104 71 39 1.7 7.8 0.00 0.00 0.00 84 1008.9
20260505052002 72 42 2.6 7.8 0.00 0.00 0.00 84 1008.9
20260505051901 72 39 2.6 9.6 0.00 0.00 0.00 84 1009.0
20260505051802 72 45 2.6 9.6 0.00 0.00 0.00 84 1008.9
20260505051702 72 44 3.5 9.6 0.00 0.00 0.00 84 1009.0
20260505051604 72 45 3.5 9.6 0.00 0.00 0.00 84 1008.9
20260505051504 72 44 3.5 9.6 0.00 0.00 0.00 84 1009.0
20260505051402 72 41 4.3 9.6 0.00 0.00 0.00 84 1009.0
20260505051302 72 42 3.5 9.6 0.00 0.00 0.00 84 1009.0
20260505051203 72 47 2.6 9.6 0.00 0.00 0.00 84 1009.0
20260505051102 72 35 3.5 9.6 0.00 0.00 0.00 84 1009.0
20260505051002 72 49 3.5 9.6 0.00 0.00 0.00 84 1008.9
20260505050903 72 41 3.5 6.1 0.00 0.00 0.00 84 1008.9
20260505050803 72 35 3.5 6.1 0.00 0.00 0.00 84 1008.8
20260505050702 72 38 2.6 6.1 0.00 0.00 0.00 84 1008.9
20260505050603 72 39 2.6 8.7 0.00 0.00 0.00 84 1008.9
20260505050503 72 51 2.6 8.7 0.00 0.00 0.00 84 1008.9
20260505050402 72 49 2.6 8.7 0.00 0.00 0.00 84 1008.9
20260505050303 72 48 2.6 10.4 0.00 0.00 0.00 84 1008.9
20260505050203 72 37 3.5 10.4 0.00 0.00 0.00 83 1008.9
20260505041750 72 49 5.2 10.4 0.00 0.00 0.00 82 1008.8
20260505041651 72 80 5.2 10.4 0.00 0.00 0.00 82 1008.8
20260505041551 72 61 3.5 10.4 0.00 0.00 0.00 82 1008.8
20260505041450 73 51 4.3 10.4 0.00 0.00 0.00 81 1008.7
20260505041351 73 59 4.3 10.4 0.00 0.00 0.00 81 1008.8
20260505041252 73 51 4.3 10.4 0.00 0.00 0.00 81 1008.8
20260505041152 73 44 5.2 10.4 0.00 0.00 0.00 81 1008.8
20260505041051 73 56 5.2 10.4 0.00 0.00 0.00 81 1008.9
20260505040950 73 18 4.3 11.3 0.00 0.00 0.00 81 1009.0
20260505040850 73 51 5.2 11.3 0.00 0.00 0.00 81 1009.1
20260505040749 73 66 5.2 11.3 0.00 0.00 0.00 81 1009.1
20260505040647 73 63 5.2 11.3 0.00 0.00 0.00 81 1009.2
20260505040547 73 42 4.3 11.3 0.00 0.00 0.00 81 1009.2
20260505040445 73 39 3.5 11.3 0.00 0.00 0.00 81 1009.1
20260505040343 73 66 5.2 11.3 0.00 0.00 0.00 81 1009.2
20260505040241 73 42 5.2 11.3 0.00 0.00 0.00 80 1009.2
20260505040140 73 63 5.2 11.3 0.00 0.00 0.00 80 1009.3
20260505040040 73 65 4.3 16.5 0.00 0.00 0.00 80 1009.3
20260505035938 73 63 4.3 16.5 0.00 0.00 0.00 80 1009.3
20260505035835 73 32 6.1 16.5 0.00 0.00 0.00 80 1009.3
20260505035734 73 0 7.0 16.5 0.00 0.00 0.00 80 1009.2
20260505035631 73 56 5.2 16.5 0.00 0.00 0.00 80 1009.2
20260505035532 73 63 5.2 16.5 0.00 0.00 0.00 80 1009.1
20260505035431 73 56 5.2 16.5 0.00 0.00 0.00 80 1009.3
20260505035333 73 55 6.1 16.5 0.00 0.00 0.00 80 1009.2
20260505035232 74 55 7.8 16.5 0.00 0.00 0.00 80 1009.2
20260505035132 74 72 7.8 16.5 0.00 0.00 0.00 80 1009.2
20260505035031 74 63 6.1 13.9 0.00 0.00 0.00 80 1009.2
20260505034934 74 0 5.2 13.9 0.00 0.00 0.00 80 1009.1
20260505034831 74 85 5.2 13.0 0.00 0.00 0.00 80 1009.1
20260505034731 74 0 6.1 13.0 0.00 0.00 0.00 80 1009.1
20260505034632 74 69 6.1 11.3 0.00 0.00 0.00 80 1009.2
20260505034530 74 92 5.2 10.4 0.00 0.00 0.00 80 1009.3
20260505034430 74 61 4.3 10.4 0.00 0.00 0.00 80 1009.4
20260505034327 74 71 4.3 10.4 0.00 0.00 0.00 80 1009.4
20260505034227 74 62 6.1 13.0 0.00 0.00 0.00 80 1009.4
20260505034125 74 35 5.2 13.0 0.00 0.00 0.00 80 1009.4
20260505034025 74 59 3.5 13.0 0.00 0.00 0.00 79 1009.4
20260505033921 74 83 4.3 13.0 0.00 0.00 0.00 79 1009.5
20260505033820 74 41 6.1 13.0 0.00 0.00 0.00 79 1009.4
20260505033719 74 25 6.1 13.0 0.00 0.00 0.00 79 1009.4
20260505033617 74 66 7.0 13.0 0.00 0.00 0.00 79 1009.5
20260505033516 74 63 7.0 13.0 0.00 0.00 0.00 79 1009.4
20260505033413 74 76 7.0 13.0 0.00 0.00 0.00 79 1009.4
20260505033313 74 83 7.0 13.0 0.00 0.00 0.00 79 1009.5
20260505033212 74 61 5.2 12.2 0.00 0.00 0.00 79 1009.4
20260505033109 74 72 6.1 15.6 0.00 0.00 0.00 79 1009.3
20260505033009 74 68 7.0 15.6 0.00 0.00 0.00 79 1009.3
20260505032907 74 78 6.1 15.6 0.00 0.00 0.00 79 1009.3
20260505032805 74 71 4.3 15.6 0.00 0.00 0.00 79 1009.3
20260505032704 74 0 5.2 15.6 0.00 0.00 0.00 79 1009.4
20260505032603 74 0 5.2 15.6 0.00 0.00 0.00 79 1009.4
20260505032502 74 71 4.3 15.6 0.00 0.00 0.00 79 1009.3
20260505032402 74 56 5.2 15.6 0.00 0.00 0.00 79 1009.4
20260505032304 74 63 7.8 15.6 0.00 0.00 0.00 79 1009.3
20260505032202 74 86 7.8 15.6 0.00 0.00 0.00 79 1009.3
20260505032101 74 0 6.1 13.0 0.00 0.00 0.00 79 1009.3
20260505032002 74 0 5.2 13.0 0.00 0.00 0.00 79 1009.4
20260505031904 74 73 4.3 13.0 0.00 0.00 0.00 79 1009.4
20260505031804 74 45 5.2 13.0 0.00 0.00 0.00 79 1009.3
20260505031702 74 80 6.1 13.0 0.00 0.00 0.00 79 1009.3
20260505031603 74 39 6.1 13.0 0.00 0.00 0.00 79 1009.2
20260505031502 74 80 6.1 13.0 0.00 0.00 0.00 79 1009.3
20260505031403 74 72 7.0 13.0 0.00 0.00 0.00 79 1009.3
20260505031303 74 65 6.1 13.0 0.00 0.00 0.00 79 1009.3
20260505031204 74 75 6.1 13.9 0.00 0.00 0.00 79 1009.2
20260505031102 74 79 7.8 14.8 0.00 0.00 0.00 79 1009.2
20260505031002 74 62 6.1 14.8 0.00 0.00 0.00 79 1009.3
20260505030903 74 71 5.2 14.8 0.00 0.00 0.00 79 1009.3
20260505030802 74 16 4.3 14.8 0.00 0.00 0.00 79 1009.2
20260505030702 74 69 5.2 14.8 0.00 0.00 0.00 79 1009.2
20260505030604 74 71 5.2 14.8 0.00 0.00 0.00 79 1009.2
20260505030502 74 68 5.2 14.8 0.00 0.00 0.00 79 1009.1
20260505030402 74 75 6.1 14.8 0.00 0.00 0.00 79 1009.2
20260505030304 74 58 7.8 14.8 0.00 0.00 0.00 79 1009.1
20260505030202 74 73 7.0 14.8 0.00 0.00 0.00 79 1009.1
20260505030004 74 68 6.1 13.0 0.00 0.00 0.00 79 1009.2
20260505025903 74 55 6.1 13.0 0.00 0.00 0.00 79 1009.1
20260505025803 74 72 6.1 13.0 0.00 0.00 0.00 79 1009.2
20260505025702 74 62 4.3 13.0 0.00 0.00 0.00 79 1009.1
20260505025604 74 52 5.2 13.0 0.00 0.00 0.00 79 1009.2
20260505025503 74 61 6.1 13.0 0.00 0.00 0.00 79 1009.2
20260505025402 74 78 6.1 13.0 0.00 0.00 0.00 79 1009.2
20260505025304 74 80 6.1 13.0 0.00 0.00 0.00 79 1009.2
20260505025203 74 87 7.8 13.0 0.00 0.00 0.00 79 1009.3
20260505025104 74 59 7.0 13.0 0.00 0.00 0.00 79 1009.2
20260505025004 74 63 4.3 13.0 0.00 0.00 0.00 79 1009.3
20260505024904 74 0 5.2 13.0 0.00 0.00 0.00 79 1009.4
20260505024802 74 69 5.2 13.0 0.00 0.00 0.00 79 1009.3
20260505024702 74 79 4.3 13.0 0.00 0.00 0.00 79 1009.3
20260505024602 74 44 4.3 13.0 0.00 0.00 0.00 79 1009.4
20260505024503 74 62 5.2 13.0 0.00 0.00 0.00 79 1009.3
20260505024403 74 59 7.0 13.0 0.00 0.00 0.00 79 1009.3
20260505024303 74 61 7.0 13.0 0.00 0.00 0.00 79 1009.3
20260505024202 74 72 5.2 13.0 0.00 0.00 0.00 79 1009.3
20260505024103 74 87 6.1 13.0 0.00 0.00 0.00 79 1009.3
20260505024003 74 76 7.0 13.0 0.00 0.00 0.00 79 1009.3
20260505023902 74 76 7.0 13.0 0.00 0.00 0.00 79 1009.3
20260505023803 74 72 7.8 13.0 0.00 0.00 0.00 78 1009.2
20260505023702 74 69 7.0 13.0 0.00 0.00 0.00 78 1009.3
20260505023602 74 73 4.3 13.0 0.00 0.00 0.00 78 1009.3
20260505023504 74 39 3.5 13.0 0.00 0.00 0.00 78 1009.3
20260505023402 74 66 3.5 13.0 0.00 0.00 0.00 78 1009.2
20260505023302 74 62 4.3 13.0 0.00 0.00 0.00 78 1009.2
20260505023203 74 79 6.1 13.0 0.00 0.00 0.00 78 1009.3
20260505023103 74 71 7.8 13.0 0.00 0.00 0.00 78 1009.2
20260505023004 74 148 8.7 13.0 0.00 0.00 0.00 78 1009.2
20260505022902 74 100 8.7 13.0 0.00 0.00 0.00 78 1009.2
20260505022803 74 97 7.0 17.4 0.00 0.00 0.00 78 1009.2
20260505022704 74 97 7.0 17.4 0.00 0.00 0.00 78 1009.2
20260505022603 74 97 7.0 17.4 0.00 0.00 0.00 78 1009.2
20260505022503 74 97 7.0 17.4 0.00 0.00 0.00 78 1009.2
20260505022403 74 97 7.0 17.4 0.00 0.00 0.00 78 1009.2
20260505022304 74 66 6.1 17.4 0.00 0.00 0.00 78 1009.1
20260505022204 74 89 5.2 17.4 0.00 0.00 0.00 78 1009.1
20260505022103 74 86 4.3 17.4 0.00 0.00 0.00 78 1009.1
20260505022002 74 61 7.8 17.4 0.00 0.00 0.00 77 1009.1
20260505021903 74 111 7.8 17.4 0.00 0.00 0.00 77 1009.1
20260505021803 74 114 7.8 15.6 0.00 0.00 0.00 77 1009.1
20260505021703 74 106 7.8 15.6 0.00 0.00 0.00 77 1009.1
20260505021603 74 49 7.0 15.6 0.00 0.00 0.00 77 1009.0
20260505021503 74 97 7.8 15.6 0.00 0.00 0.00 77 1009.0
20260505021403 74 75 7.8 15.6 0.00 0.00 0.00 77 1009.0
20260505021303 74 69 7.0 13.0 0.00 0.00 0.00 77 1009.0
20260505021201 74 114 7.8 13.0 0.00 0.00 0.00 77 1009.1
20260505021104 74 134 7.8 12.2 0.00 0.00 0.00 77 1009.1
20260505021003 74 118 7.8 13.9 0.00 0.00 0.00 77 1009.2
20260505020903 74 87 6.1 13.9 0.00 0.00 0.00 77 1009.2
20260505020803 74 110 5.2 13.9 0.00 0.00 0.00 77 1009.2
20260505020702 74 114 4.3 13.9 0.00 0.00 0.00 77 1009.2
20260505020602 74 97 5.2 13.9 0.00 0.00 0.00 77 1009.1
20260505020502 74 97 5.2 13.9 0.00 0.00 0.00 77 1009.1
20260505020404 74 96 6.1 16.5 0.00 0.00 0.00 77 1009.1
20260505020303 74 96 6.1 16.5 0.00 0.00 0.00 77 1009.1
20260505020204 74 96 6.1 16.5 0.00 0.00 0.00 77 1009.1
20260505020104 74 96 6.1 16.5 0.00 0.00 0.00 77 1009.0
20260505020004 74 47 4.3 16.5 0.00 0.00 0.00 77 1009.0
20260505015902 74 96 7.0 16.5 0.00 0.00 0.00 77 1009.0
20260505015804 74 93 8.7 16.5 0.00 0.00 0.00 77 1009.0
20260505015702 75 93 7.8 16.5 0.00 0.00 0.00 77 1009.0
20260505015602 75 90 7.8 16.5 0.00 0.00 0.00 77 1009.0
20260505015503 75 63 8.7 16.5 0.00 0.00 0.00 77 1009.0
20260505015404 75 83 7.8 13.9 0.00 0.00 0.00 76 1009.0
20260505015303 75 89 6.1 13.0 0.00 0.00 0.00 77 1009.0
20260505015203 75 99 5.2 15.6 0.00 0.00 0.00 77 1009.0
20260505015103 75 118 4.3 15.6 0.00 0.00 0.00 76 1009.0
20260505015004 75 86 4.3 15.6 0.00 0.00 0.00 76 1009.0
20260505014902 75 110 4.3 15.6 0.00 0.00 0.00 76 1008.9
20260505014802 75 104 5.2 15.6 0.00 0.00 0.00 76 1008.9
20260505014702 75 93 7.0 15.6 0.00 0.00 0.00 76 1008.9
20260505014602 75 100 7.0 16.5 0.00 0.00 0.00 76 1008.8
20260505014502 75 221 7.0 16.5 0.00 0.00 0.00 76 1008.9
20260505014403 75 165 8.7 16.5 0.00 0.00 0.00 76 1008.9
20260505014302 75 172 8.7 16.5 0.00 0.00 0.00 76 1008.9
20260505014202 75 182 6.1 16.5 0.00 0.00 0.00 76 1008.9
20260505014103 75 175 5.2 16.5 0.00 0.00 0.00 76 1008.7
20260505014004 75 164 6.1 16.5 0.00 0.00 0.00 76 1008.8
20260505013902 75 147 7.0 16.5 0.00 0.00 0.00 76 1008.8
20260505013802 75 166 7.8 16.5 0.00 0.00 0.00 76 1008.7
20260505013703 75 164 7.8 16.5 0.00 0.00 0.00 76 1008.7
20260505013601 75 164 6.1 13.0 0.00 0.00 0.00 76 1008.7
20260505013504 75 186 4.3 13.0 0.00 0.00 0.00 76 1008.7
20260505013403 75 128 4.3 13.0 0.00 0.00 0.00 76 1008.7
20260505013303 75 168 4.3 13.0 0.00 0.00 0.00 76 1008.7
20260505013203 75 154 5.2 13.0 0.00 0.00 0.00 76 1008.7
20260505013102 75 224 5.2 13.0 0.00 0.00 0.00 76 1008.6
20260505013002 75 138 5.2 13.0 0.00 0.00 0.00 76 1008.7
20260505012902 75 171 3.5 13.0 0.00 0.00 0.00 76 1008.6
20260505012802 75 148 5.2 13.0 0.00 0.00 0.00 76 1008.6
20260505012703 75 162 7.8 13.0 0.00 0.00 0.00 76 1008.4
20260505012603 75 171 5.2 12.2 0.00 0.00 0.00 76 1008.5
20260505012504 75 137 5.2 11.3 0.00 0.00 0.00 76 1008.5
20260505012402 75 111 4.3 11.3 0.00 0.00 0.00 76 1008.6
20260505012304 75 154 3.5 11.3 0.00 0.00 0.00 76 1008.6
20260505012202 75 121 4.3 11.3 0.00 0.00 0.00 76 1008.6
20260505012103 75 79 4.3 11.3 0.00 0.00 0.00 76 1008.6
20260505012004 75 96 4.3 11.3 0.00 0.00 0.00 76 1008.6
20260505011903 75 107 4.3 11.3 0.00 0.00 0.00 76 1008.6
20260505011802 75 85 4.3 11.3 0.00 0.00 0.00 76 1008.7
20260505011702 75 97 4.3 11.3 0.00 0.00 0.00 76 1008.7
20260505011603 75 75 5.2 11.3 0.00 0.00 0.00 76 1008.8
20260505011504 75 83 6.1 11.3 0.00 0.00 0.00 76 1008.8
20260505011403 75 93 5.2 11.3 0.00 0.00 0.00 76 1008.8
20260505011303 75 78 5.2 10.4 0.00 0.00 0.00 76 1008.7
20260505011202 75 41 5.2 10.4 0.00 0.00 0.00 76 1008.8
20260505011103 75 65 5.2 9.6 0.00 0.00 0.00 76 1008.7
20260505011003 75 76 4.3 12.2 0.00 0.00 0.00 76 1008.7
20260505010902 75 123 3.5 12.2 0.00 0.00 0.00 76 1008.7
20260505010801 75 49 4.3 12.2 0.00 0.00 0.00 76 1008.7
20260505010702 75 103 4.3 12.2 0.00 0.00 0.00 76 1008.7
20260505010603 75 113 4.3 12.2 0.00 0.00 0.00 76 1008.6
20260505010502 75 94 5.2 12.2 0.00 0.00 0.00 75 1008.7
20260505010402 75 90 6.1 14.8 0.00 0.00 0.00 75 1008.7
20260505010303 75 71 6.1 14.8 0.00 0.00 0.00 75 1008.7
20260505010202 75 155 5.2 14.8 0.00 0.00 0.00 75 1008.7
20260505010103 75 135 5.2 14.8 0.00 0.00 0.00 75 1008.7
20260505010004 75 83 6.1 14.8 0.00 0.00 0.00 75 1008.7
20260505005902 75 120 6.1 14.8 0.00 0.00 0.00 75 1008.8
20260505005802 75 97 5.2 14.8 0.00 0.00 0.00 75 1008.7
20260505005702 75 100 4.3 14.8 0.00 0.00 0.00 75 1008.6
20260505005603 75 35 6.1 14.8 0.00 0.00 0.00 75 1008.6
20260505005502 75 103 6.1 14.8 0.00 0.00 0.00 75 1008.6
20260505005403 75 103 5.2 13.0 0.00 0.00 0.00 75 1008.6
20260505005303 75 71 5.2 13.0 0.00 0.00 0.00 75 1008.5
20260505005203 75 154 5.2 13.0 0.00 0.00 0.00 75 1008.6
20260505005104 75 186 6.1 13.0 0.00 0.00 0.00 75 1008.5
20260505005004 75 212 6.1 13.0 0.00 0.00 0.00 75 1008.6
20260505004902 75 172 6.1 10.4 0.00 0.00 0.00 75 1008.5
20260505004804 75 157 5.2 10.4 0.00 0.00 0.00 75 1008.6
20260505004702 75 154 3.5 9.6 0.00 0.00 0.00 75 1008.5
20260505004604 75 151 4.3 9.6 0.00 0.00 0.00 75 1008.5
20260505004503 75 173 5.2 9.6 0.00 0.00 0.00 75 1008.5
20260505004401 76 158 3.5 9.6 0.00 0.00 0.00 75 1008.4
20260505004302 75 172 3.5 12.2 0.00 0.00 0.00 75 1008.4
20260505004202 76 209 3.5 12.2 0.00 0.00 0.00 75 1008.4
20260505004102 76 173 3.5 15.6 0.00 0.00 0.00 75 1008.4
20260505004002 76 166 4.3 15.6 0.00 0.00 0.00 74 1008.4
20260505003903 76 233 4.3 15.6 0.00 0.00 0.00 75 1008.4
20260505003802 76 24 3.5 15.6 0.00 0.00 0.00 74 1008.4
20260505003703 76 131 3.5 15.6 0.00 0.00 0.00 74 1008.4
20260505003603 76 251 3.5 15.6 0.00 0.00 0.00 74 1008.4
20260505003504 76 214 4.3 15.6 0.00 0.00 0.00 74 1008.4
20260505003404 76 348 6.1 15.6 0.00 0.00 0.00 74 1008.4
20260505003302 76 151 7.0 15.6 0.00 0.00 0.00 74 1008.5
20260505003203 76 233 6.1 15.6 0.00 0.00 0.00 74 1008.5
20260505003102 76 152 4.3 13.9 0.00 0.00 0.00 74 1008.5
20260505003002 76 169 3.5 13.9 0.00 0.00 0.00 74 1008.4
20260505002903 76 75 6.1 13.9 0.00 0.00 0.00 73 1008.4
20260505002803 76 207 7.8 13.9 0.00 0.00 0.00 74 1008.5
20260505002701 76 200 7.0 13.9 0.00 0.00 0.00 74 1008.4
20260505002601 76 141 7.0 11.3 0.00 0.00 0.00 73 1008.5
20260505002504 76 106 6.1 11.3 0.00 0.00 0.00 73 1008.4
20260505002402 76 141 4.3 11.3 0.00 0.00 0.00 73 1008.4
20260505002303 76 188 3.5 12.2 0.00 0.00 0.00 73 1008.5
20260505002203 76 89 5.2 12.2 0.00 0.00 0.00 73 1008.5
20260505002102 76 180 6.1 12.2 0.00 0.00 0.00 73 1008.5
20260505002003 76 118 5.2 12.2 0.00 0.00 0.00 73 1008.6
20260505001904 76 151 5.2 12.2 0.00 0.00 0.00 73 1008.5
20260505001802 76 175 5.2 12.2 0.00 0.00 0.00 73 1008.6
20260505001703 76 186 7.0 12.2 0.00 0.00 0.00 73 1008.6
20260505001602 76 165 6.1 12.2 0.00 0.00 0.00 73 1008.5
20260505001505 76 128 7.0 12.2 0.00 0.00 0.00 73 1008.6
20260505001403 77 157 7.0 12.2 0.00 0.00 0.00 73 1008.5
20260505001301 77 203 6.1 12.2 0.00 0.00 0.00 73 1008.6
20260505001202 77 149 5.2 10.4 0.00 0.00 0.00 73 1008.5
20260505001102 77 161 5.2 10.4 0.00 0.00 0.00 73 1008.5
20260505001002 77 188 6.1 12.2 0.00 0.00 0.00 73 1008.6
20260505000901 77 207 5.2 13.0 0.00 0.00 0.00 73 1008.7
20260505000759 77 154 4.3 13.0 0.00 0.00 0.00 73 1008.6
20260505000657 77 149 3.5 13.0 0.00 0.00 0.00 73 1008.7
20260505000557 77 164 3.5 14.8 0.00 0.00 0.00 73 1008.7
20260505000456 77 206 6.1 14.8 0.00 0.00 0.00 73 1008.6
20260505000353 77 168 6.1 14.8 0.00 0.00 0.00 72 1008.6
20260505000250 77 147 5.2 14.8 0.00 0.00 0.00 72 1008.6
20260505000145 77 152 7.0 14.8 0.00 0.00 0.00 72 1008.6
20260505000045 77 75 7.0 14.8 0.00 0.00 0.00 72 1008.6
20260504235946 77 166 6.1 14.8 0.00 0.00 0.00 72 1008.6
20260504235845 77 169 6.1 14.8 0.00 0.00 0.00 72 1008.6
20260504235744 77 80 6.1 14.8 0.00 0.00 0.00 72 1008.5
20260504235645 77 213 5.2 14.8 0.00 0.00 0.00 72 1008.6
20260504235545 77 133 5.2 13.9 0.00 0.00 0.00 72 1008.5
20260504235446 77 141 5.2 13.9 0.00 0.00 0.00 72 1008.5
20260504235344 77 120 4.3 13.9 0.00 0.00 0.00 72 1008.6
20260504235245 77 147 5.2 13.9 0.00 0.00 0.00 72 1008.5
20260504235144 77 125 6.1 13.9 0.00 0.00 0.00 72 1008.6
20260504235044 77 178 5.2 13.9 0.00 0.00 0.00 72 1008.6
20260504234944 77 96 4.3 13.9 0.00 0.00 0.00 72 1008.6
20260504234844 77 147 6.1 13.9 0.00 0.00 0.00 72 1008.6
20260504234746 77 179 7.0 13.9 0.00 0.00 0.00 72 1008.7
20260504234646 77 159 5.2 11.3 0.00 0.00 0.00 72 1008.6
20260504234545 77 165 5.2 11.3 0.00 0.00 0.00 72 1008.6
20260504234445 77 157 4.3 11.3 0.00 0.00 0.00 72 1008.8
20260504234345 77 127 3.5 11.3 0.00 0.00 0.00 72 1008.7
20260504234247 77 176 4.3 11.3 0.00 0.00 0.00 72 1008.7
20260504234145 77 196 4.3 11.3 0.00 0.00 0.00 72 1008.7
20260504234044 77 120 5.2 11.3 0.00 0.00 0.00 72 1008.7
20260504233944 77 171 5.2 11.3 0.00 0.00 0.00 72 1008.7
20260504233845 77 141 4.3 13.0 0.00 0.00 0.00 72 1008.7
20260504233744 77 55 4.3 13.0 0.00 0.00 0.00 72 1008.7
20260504233644 77 123 4.3 13.0 0.00 0.00 0.00 72 1008.7
20260504233545 77 85 4.3 13.0 0.00 0.00 0.00 72 1008.8
20260504233445 77 173 5.2 13.0 0.00 0.00 0.00 72 1008.8
20260504233344 77 172 5.2 13.0 0.00 0.00 0.00 72 1008.8
20260504233244 77 186 4.3 13.0 0.00 0.00 0.00 72 1008.8
20260504233146 77 121 5.2 14.8 0.00 0.00 0.00 72 1008.8
20260504233045 77 100 7.0 14.8 0.00 0.00 0.00 72 1008.8
20260504232944 77 123 5.2 14.8 0.00 0.00 0.00 72 1008.8
20260504232847 77 56 4.3 14.8 0.00 0.00 0.00 71 1008.8
20260504232744 77 89 7.0 14.8 0.00 0.00 0.00 71 1008.8
20260504232646 77 164 7.8 14.8 0.00 0.00 0.00 71 1008.8
20260504232545 77 144 7.0 14.8 0.00 0.00 0.00 71 1008.7
20260504232445 77 162 5.2 14.8 0.00 0.00 0.00 71 1008.7
20260504232344 77 130 7.0 14.8 0.00 0.00 0.00 71 1008.8
20260504232244 78 130 7.8 14.8 0.00 0.00 0.00 71 1008.9
20260504232144 78 71 7.0 13.0 0.00 0.00 0.00 71 1008.8
20260504232043 78 158 6.1 13.0 0.00 0.00 0.00 71 1008.9
20260504231942 78 85 5.2 12.2 0.00 0.00 0.00 71 1008.9
20260504231840 78 127 5.2 12.2 0.00 0.00 0.00 71 1008.9
20260504231740 78 97 3.5 12.2 0.00 0.00 0.00 71 1008.9
20260504231637 78 288 3.5 12.2 0.00 0.00 0.00 71 1008.9
20260504231535 78 116 4.3 12.2 0.00 0.00 0.00 70 1008.8
20260504231435 78 186 5.2 12.2 0.00 0.00 0.00 70 1008.8
20260504231333 78 125 7.0 12.2 0.00 0.00 0.00 70 1008.8
20260504231232 78 252 6.1 12.2 0.00 0.00 0.00 70 1008.8
20260504231132 78 159 5.2 11.3 0.00 0.00 0.00 70 1008.9
20260504231031 78 159 6.1 11.3 0.00 0.00 0.00 70 1008.9
20260504230932 78 203 5.2 12.2 0.00 0.00 0.00 70 1009.0
20260504230831 78 152 5.2 12.2 0.00 0.00 0.00 70 1009.1
20260504230731 78 166 5.2 12.2 0.00 0.00 0.00 70 1009.1
20260504230634 78 127 5.2 12.2 0.00 0.00 0.00 70 1009.0
20260504230531 78 178 6.1 12.2 0.00 0.00 0.00 70 1009.0
20260504230430 78 149 5.2 12.2 0.00 0.00 0.00 70 1009.1
20260504230331 78 289 6.1 12.2 0.00 0.00 0.00 70 1009.0
20260504230232 78 186 5.2 12.2 0.00 0.00 0.00 70 1009.0
20260504230133 78 169 5.2 12.2 0.00 0.00 0.00 70 1008.9
20260504230031 78 159 6.1 12.2 0.00 0.00 0.00 70 1009.0
20260504225932 78 154 6.1 12.2 0.00 0.00 0.00 69 1009.0
20260504225832 78 190 6.1 11.3 0.00 0.00 0.00 69 1008.8
20260504225731 78 203 5.2 12.2 0.00 0.00 0.00 69 1008.9
20260504225632 78 185 6.1 12.2 0.00 0.00 0.00 69 1008.9
20260504225532 78 155 5.2 12.2 0.00 0.00 0.00 69 1008.9
20260504225431 79 155 5.2 13.9 0.00 0.00 0.00 69 1008.8
20260504225331 79 93 6.1 13.9 0.00 0.00 0.00 69 1008.9
20260504225231 79 158 6.1 13.9 0.00 0.00 0.00 69 1008.9
20260504225131 79 165 6.1 13.9 0.00 0.00 0.00 69 1008.9
20260504225031 79 159 6.1 13.9 0.00 0.00 0.00 69 1009.0
20260504224932 79 96 6.1 13.9 0.00 0.00 0.00 68 1009.1
20260504224831 79 164 6.1 13.9 0.00 0.00 0.00 68 1009.1
20260504224732 79 158 7.0 13.9 0.00 0.00 0.00 68 1009.1
20260504224631 79 152 7.0 13.9 0.00 0.00 0.00 68 1009.1
20260504224532 79 69 5.2 13.9 0.00 0.00 0.00 68 1009.1
20260504224431 79 159 3.5 10.4 0.00 0.00 0.00 68 1009.1
20260504224331 79 155 3.5 15.6 0.00 0.00 0.00 69 1009.2
20260504224233 79 159 4.3 15.6 0.00 0.00 0.00 68 1009.1
20260504224132 79 107 6.1 15.6 0.00 0.00 0.00 68 1009.1
20260504224031 79 224 6.1 15.6 0.00 0.00 0.00 68 1009.2
20260504223932 79 113 2.6 15.6 0.00 0.00 0.00 68 1009.1
20260504223831 79 113 2.6 15.6 0.00 0.00 0.00 68 1009.1
20260504223731 79 82 2.6 15.6 0.00 0.00 0.00 68 1009.1
20260504223631 79 140 4.3 15.6 0.00 0.00 0.00 68 1009.1
20260504223533 79 120 7.0 15.6 0.00 0.00 0.00 67 1009.1
20260504223431 80 175 7.0 15.6 0.00 0.00 0.00 67 1009.1
20260504223329 80 190 6.1 13.9 0.00 0.00 0.00 67 1009.2
20260504223227 80 154 5.2 13.9 0.00 0.00 0.00 67 1009.2
20260504223127 80 130 5.2 13.9 0.00 0.00 0.00 67 1009.2
20260504223025 80 100 5.2 13.9 0.00 0.00 0.00 68 1009.2
20260504222924 80 209 5.2 13.9 0.00 0.00 0.00 67 1009.2
20260504222821 80 231 5.2 13.9 0.00 0.00 0.00 67 1009.3
20260504222720 80 172 6.1 13.9 0.00 0.00 0.00 67 1009.3
20260504222618 80 282 7.8 13.9 0.00 0.00 0.00 66 1009.2
20260504222518 80 175 7.0 13.0 0.00 0.00 0.00 66 1009.3
20260504222416 80 118 5.2 12.2 0.00 0.00 0.00 66 1009.2
20260504222314 80 238 4.3 11.3 0.00 0.00 0.00 67 1009.2
20260504222212 80 128 5.2 11.3 0.00 0.00 0.00 67 1009.3
20260504222111 80 172 5.2 11.3 0.00 0.00 0.00 66 1009.3
20260504222010 80 75 5.2 14.8 0.00 0.00 0.00 65 1009.4
20260504221907 80 162 4.3 14.8 0.00 0.00 0.00 65 1009.3
20260504221808 80 133 4.3 14.8 0.00 0.00 0.00 66 1009.4
20260504221705 80 182 6.1 14.8 0.00 0.00 0.00 65 1009.3
20260504221604 80 161 7.8 14.8 0.00 0.00 0.00 65 1009.3
20260504221504 80 154 5.2 14.8 0.00 0.00 0.00 65 1009.4
20260504221403 80 189 3.5 14.8 0.00 0.00 0.00 65 1009.4
20260504221303 80 276 5.2 14.8 0.00 0.00 0.00 65 1009.4
20260504221203 80 176 7.8 14.8 0.00 0.00 0.00 64 1009.4
20260504221103 80 204 8.7 14.8 0.00 0.00 0.00 64 1009.5
20260504221003 80 172 7.0 13.0 0.00 0.00 0.00 64 1009.5
20260504220903 80 164 7.0 11.3 0.00 0.00 0.00 64 1009.4
20260504220803 80 148 5.2 11.3 0.00 0.00 0.00 63 1009.4
20260504220702 80 151 3.5 9.6 0.00 0.00 0.00 64 1009.4
20260504220602 81 213 3.5 11.3 0.00 0.00 0.00 64 1009.4
20260504220504 80 142 3.5 12.2 0.00 0.00 0.00 64 1009.4
20260504220402 81 144 5.2 12.2 0.00 0.00 0.00 64 1009.4
20260504220302 81 145 5.2 12.2 0.00 0.00 0.00 63 1009.5
20260504220202 81 274 6.1 12.2 0.00 0.00 0.00 62 1009.5
20260504220003 81 274 6.1 12.2 0.00 0.00 0.00 62 1009.4
20260504215904 81 274 6.1 12.2 0.00 0.00 0.00 62 1009.4
20260504215802 81 200 6.1 12.2 0.00 0.00 0.00 62 1009.4
20260504215702 81 212 7.0 12.2 0.00 0.00 0.00 61 1009.4
20260504215602 81 202 7.0 12.2 0.00 0.00 0.00 61 1009.4
20260504215504 81 233 5.2 11.3 0.00 0.00 0.00 62 1009.4
20260504215403 81 114 4.3 11.3 0.00 0.00 0.00 62 1009.4
20260504215304 81 159 4.3 11.3 0.00 0.00 0.00 62 1009.4
20260504215204 81 147 5.2 11.3 0.00 0.00 0.00 61 1009.5
20260504215104 81 123 5.2 11.3 0.00 0.00 0.00 61 1009.5
20260504215003 81 158 5.2 11.3 0.00 0.00 0.00 61 1009.4
20260504214903 82 210 6.1 15.6 0.00 0.00 0.00 61 1009.5
20260504214803 82 196 6.1 15.6 0.00 0.00 0.00 60 1009.5
20260504214702 82 240 5.2 15.6 0.00 0.00 0.00 61 1009.5
20260504214602 82 202 3.5 15.6 0.00 0.00 0.00 61 1009.5
20260504214504 82 111 5.2 15.6 0.00 0.00 0.00 61 1009.5
20260504214403 82 141 5.2 15.6 0.00 0.00 0.00 60 1009.5
20260504214303 82 189 4.3 15.6 0.00 0.00 0.00 61 1009.4
20260504214204 82 180 5.2 15.6 0.00 0.00 0.00 61 1009.5
20260504214102 81 157 6.1 15.6 0.00 0.00 0.00 61 1009.5
20260504214003 81 137 6.1 15.6 0.00 0.00 0.00 61 1009.6
20260504213902 81 130 5.2 11.3 0.00 0.00 0.00 61 1009.6
20260504213803 81 85 5.2 12.2 0.00 0.00 0.00 61 1009.5
20260504213702 81 121 5.2 13.0 0.00 0.00 0.00 61 1009.5
20260504213602 82 111 6.1 13.0 0.00 0.00 0.00 60 1009.6
20260504213503 82 71 5.2 13.0 0.00 0.00 0.00 60 1009.6
20260504213403 82 86 4.3 13.0 0.00 0.00 0.00 60 1009.6
20260504213304 82 120 3.5 13.0 0.00 0.00 0.00 60 1009.7
20260504213202 82 116 4.3 13.0 0.00 0.00 0.00 60 1009.7
20260504213102 82 99 6.1 13.9 0.00 0.00 0.00 60 1009.6
20260504213002 82 93 6.1 13.9 0.00 0.00 0.00 60 1009.7
20260504212903 82 180 6.1 13.9 0.00 0.00 0.00 60 1009.7
20260504212802 82 137 5.2 13.9 0.00 0.00 0.00 60 1009.6
20260504212702 82 100 4.3 13.9 0.00 0.00 0.00 61 1009.6
20260504212603 82 133 5.2 13.9 0.00 0.00 0.00 60 1009.7
20260504212502 82 159 4.3 13.9 0.00 0.00 0.00 60 1009.7
20260504212403 82 130 5.2 13.9 0.00 0.00 0.00 59 1009.7
20260504212304 82 202 7.8 13.9 0.00 0.00 0.00 59 1009.7
20260504212202 82 157 7.8 13.9 0.00 0.00 0.00 58 1009.7
20260504212105 82 190 6.1 12.2 0.00 0.00 0.00 59 1009.7
20260504212004 82 265 4.3 10.4 0.00 0.00 0.00 58 1009.7
20260504211902 82 94 4.3 10.4 0.00 0.00 0.00 59 1009.7
20260504211803 82 130 4.3 10.4 0.00 0.00 0.00 60 1009.7
20260504211702 82 217 5.2 10.4 0.00 0.00 0.00 59 1009.8
20260504211602 82 107 5.2 11.3 0.00 0.00 0.00 58 1009.8
20260504211503 82 99 5.2 13.9 0.00 0.00 0.00 58 1009.9
20260504211402 83 96 5.2 13.9 0.00 0.00 0.00 57 1009.9
20260504211301 83 140 4.3 13.9 0.00 0.00 0.00 58 1009.9
20260504211200 83 140 5.2 13.9 0.00 0.00 0.00 57 1010.0
20260504211059 83 147 6.1 14.8 0.00 0.00 0.00 57 1009.9
20260504210956 83 96 5.2 14.8 0.00 0.00 0.00 57 1010.0
20260504210854 83 97 5.2 14.8 0.00 0.00 0.00 59 1009.9
20260504210754 83 171 7.0 14.8 0.00 0.00 0.00 58 1010.0
20260504210653 83 200 8.7 14.8 0.00 0.00 0.00 58 1010.0
20260504210550 82 199 7.8 14.8 0.00 0.00 0.00 58 1009.9
20260504210449 82 206 4.3 14.8 0.00 0.00 0.00 60 1010.0
20260504210349 82 173 4.3 14.8 0.00 0.00 0.00 59 1010.0
20260504210247 82 148 6.1 14.8 0.00 0.00 0.00 58 1010.0
20260504210145 82 197 7.0 14.8 0.00 0.00 0.00 58 1009.9
20260504210046 82 165 6.1 11.3 0.00 0.00 0.00 59 1010.0
20260504205940 82 185 6.1 11.3 0.00 0.00 0.00 58 1010.0
20260504205840 82 190 6.1 11.3 0.00 0.00 0.00 58 1010.0
20260504205741 82 183 5.2 11.3 0.00 0.00 0.00 58 1010.2
20260504205641 82 117 4.3 12.2 0.00 0.00 0.00 59 1010.2
20260504205541 82 96 4.3 12.2 0.00 0.00 0.00 58 1010.1
20260504205440 82 161 5.2 12.2 0.00 0.00 0.00 58 1010.2
20260504205341 83 179 6.1 12.2 0.00 0.00 0.00 57 1010.2
20260504205242 83 120 4.3 12.2 0.00 0.00 0.00 57 1010.2
20260504205142 83 264 3.5 12.2 0.00 0.00 0.00 59 1010.3
20260504205040 83 118 4.3 12.2 0.00 0.00 0.00 59 1010.3
20260504204940 83 168 6.1 12.2 0.00 0.00 0.00 58 1010.2
20260504204841 83 113 7.0 15.6 0.00 0.00 0.00 57 1010.3
20260504204740 83 118 6.1 15.6 0.00 0.00 0.00 57 1010.1
20260504204641 83 121 5.2 15.6 0.00 0.00 0.00 57 1010.2
20260504204541 83 123 5.2 15.6 0.00 0.00 0.00 56 1010.2
20260504204440 84 4 7.0 15.6 0.00 0.00 0.00 55 1010.2
20260504204334 84 168 7.0 15.6 0.00 0.00 0.00 55 1010.3
20260504204234 85 157 5.2 15.6 0.00 0.00 0.00 56 1010.2
20260504204131 85 107 5.2 15.6 0.00 0.00 0.00 56 1010.3
20260504204030 85 250 6.1 15.6 0.00 0.00 0.00 56 1010.3
20260504203932 85 123 5.2 15.6 0.00 0.00 0.00 56 1010.2
20260504203832 84 103 3.5 11.3 0.00 0.00 0.00 55 1010.2
20260504203730 84 178 4.3 11.3 0.00 0.00 0.00 57 1010.2
20260504203631 83 125 4.3 11.3 0.00 0.00 0.00 57 1010.2
20260504203532 83 152 4.3 11.3 0.00 0.00 0.00 58 1010.2
20260504203431 83 149 4.3 11.3 0.00 0.00 0.00 57 1010.2
20260504203331 82 182 4.3 11.3 0.00 0.00 0.00 56 1010.2
20260504203232 83 195 5.2 11.3 0.00 0.00 0.00 56 1010.3
20260504203115 83 164 5.2 13.0 0.00 0.00 0.00 56 1010.4
20260504203015 83 245 5.2 13.0 0.00 0.00 0.00 55 1010.4
20260504202913 83 161 4.3 13.0 0.00 0.00 0.00 55 1010.5
20260504202810 84 212 5.2 13.0 0.00 0.00 0.00 55 1010.5
20260504202709 84 157 6.1 13.0 0.00 0.00 0.00 54 1010.5
20260504202607 85 204 4.3 13.0 0.00 0.00 0.00 54 1010.5
20260504202502 85 178 3.5 13.0 0.00 0.00 0.00 54 1010.5
20260504202403 85 141 4.3 13.0 0.00 0.00 0.00 54 1010.5
20260504202304 85 196 6.1 13.0 0.00 0.00 0.00 54 1010.6
20260504202203 85 226 7.0 13.0 0.00 0.00 0.00 54 1010.5
20260504202102 85 196 4.3 9.6 0.00 0.00 0.00 53 1010.5
20260504202003 85 224 3.5 9.6 0.00 0.00 0.00 56 1010.6
20260504201902 84 226 2.6 9.6 0.00 0.00 0.00 57 1010.7
20260504201803 83 241 2.6 9.6 0.00 0.00 0.00 56 1010.6
20260504201701 83 133 3.5 12.2 0.00 0.00 0.00 56 1010.6
20260504201603 82 145 3.5 12.2 0.00 0.00 0.00 58 1010.6
20260504201502 82 102 5.2 13.9 0.00 0.00 0.00 57 1010.7
20260504201402 82 165 4.3 13.9 0.00 0.00 0.00 57 1010.8
20260504201304 82 189 3.5 13.9 0.00 0.00 0.00 57 1010.8
20260504201203 82 96 4.3 13.9 0.00 0.00 0.00 57 1010.8
20260504201102 82 190 5.2 13.9 0.00 0.00 0.00 56 1010.8
20260504201002 82 133 4.3 13.9 0.00 0.00 0.00 56 1010.8
20260504200903 83 162 6.1 13.9 0.00 0.00 0.00 56 1010.8
20260504200802 83 195 7.0 13.9 0.00 0.00 0.00 54 1010.9
20260504200702 84 161 7.0 13.9 0.00 0.00 0.00 54 1010.9
20260504200604 84 159 7.0 13.9 0.00 0.00 0.00 55 1010.8
20260504200504 84 141 5.2 13.0 0.00 0.00 0.00 56 1010.8
20260504200401 84 159 5.2 13.0 0.00 0.00 0.00 57 1010.9
20260504200301 83 175 5.2 13.9 0.00 0.00 0.00 56 1010.9
20260504200204 83 168 5.2 13.9 0.00 0.00 0.00 57 1011.0
20260504200103 83 71 7.0 13.9 0.00 0.00 0.00 56 1010.9
20260504200004 82 123 7.0 13.9 0.00 0.00 0.00 56 1011.0
20260504195903 82 117 5.2 13.9 0.00 0.00 0.00 56 1011.0
20260504195803 82 180 5.2 13.9 0.00 0.00 0.00 56 1011.0
20260504195702 83 133 5.2 13.9 0.00 0.00 0.00 55 1011.1
20260504195603 83 193 5.2 13.9 0.00 0.00 0.00 55 1011.2
20260504195503 83 165 7.0 13.9 0.00 0.00 0.00 55 1011.1
20260504195402 84 162 7.0 13.9 0.00 0.00 0.00 53 1011.2
20260504195304 84 203 5.2 11.3 0.00 0.00 0.00 53 1011.2
20260504195202 84 148 5.2 11.3 0.00 0.00 0.00 53 1011.1
20260504195102 84 154 4.3 13.0 0.00 0.00 0.00 53 1011.0
20260504195003 84 209 4.3 13.0 0.00 0.00 0.00 53 1011.0
20260504194902 84 233 5.2 13.0 0.00 0.00 0.00 54 1011.0
20260504194802 84 164 5.2 13.0 0.00 0.00 0.00 53 1011.1
20260504194702 84 151 6.1 13.0 0.00 0.00 0.00 54 1011.0
20260504194603 84 172 6.1 13.0 0.00 0.00 0.00 54 1011.0
20260504194504 84 157 7.0 13.0 0.00 0.00 0.00 55 1011.1
20260504194402 84 140 6.1 13.0 0.00 0.00 0.00 55 1011.1
20260504194304 84 162 5.2 13.0 0.00 0.00 0.00 55 1011.1
20260504194203 83 58 6.1 13.0 0.00 0.00 0.00 56 1011.2
20260504194102 83 159 6.1 12.2 0.00 0.00 0.00 56 1011.2
20260504194003 83 178 6.1 12.2 0.00 0.00 0.00 56 1011.2
20260504193901 83 111 5.2 12.2 0.00 0.00 0.00 56 1011.2
20260504193802 83 52 5.2 12.2 0.00 0.00 0.00 55 1011.3
20260504193702 83 154 5.2 12.2 0.00 0.00 0.00 56 1011.3
20260504193602 83 169 5.2 12.2 0.00 0.00 0.00 55 1011.3
20260504193504 83 243 4.3 12.2 0.00 0.00 0.00 56 1011.3
20260504193403 83 193 5.2 12.2 0.00 0.00 0.00 55 1011.3
20260504193302 83 123 7.0 12.2 0.00 0.00 0.00 55 1011.3
20260504193203 83 179 6.1 12.2 0.00 0.00 0.00 56 1011.4
20260504193103 83 111 4.3 10.4 0.00 0.00 0.00 56 1011.3
20260504193004 83 128 3.5 10.4 0.00 0.00 0.00 55 1011.4
20260504192902 83 71 5.2 10.4 0.00 0.00 0.00 54 1011.5
20260504192803 83 148 6.1 10.4 0.00 0.00 0.00 53 1011.4
20260504192703 83 78 5.2 9.6 0.00 0.00 0.00 54 1011.4
20260504192602 84 135 3.5 8.7 0.00 0.00 0.00 53 1011.4
20260504192505 84 223 2.6 10.4 0.00 0.00 0.00 52 1011.4
20260504192404 84 186 3.5 10.4 0.00 0.00 0.00 54 1011.5
20260504192304 84 154 2.6 10.4 0.00 0.00 0.00 55 1011.5
20260504192202 83 82 3.5 10.4 0.00 0.00 0.00 56 1011.5
20260504192104 83 189 5.2 11.3 0.00 0.00 0.00 56 1011.5
20260504192002 83 148 5.2 11.3 0.00 0.00 0.00 56 1011.6
20260504191901 82 145 4.3 11.3 0.00 0.00 0.00 56 1011.7
20260504191801 82 213 4.3 11.3 0.00 0.00 0.00 56 1011.6
20260504191702 82 166 7.0 11.3 0.00 0.00 0.00 55 1011.7
20260504191601 82 171 7.0 12.2 0.00 0.00 0.00 55 1011.6
20260504191503 83 203 5.2 12.2 0.00 0.00 0.00 55 1011.7
20260504191403 83 173 5.2 12.2 0.00 0.00 0.00 54 1011.6
20260504191303 83 199 7.0 12.2 0.00 0.00 0.00 54 1011.6
20260504191202 83 228 6.1 12.2 0.00 0.00 0.00 54 1011.6
20260504191104 83 226 3.5 12.2 0.00 0.00 0.00 54 1011.8
20260504191002 83 243 4.3 12.2 0.00 0.00 0.00 55 1011.8
20260504190902 82 233 6.1 13.0 0.00 0.00 0.00 55 1011.7
20260504190804 83 221 7.0 13.0 0.00 0.00 0.00 54 1011.8
20260504190702 83 165 6.1 13.0 0.00 0.00 0.00 55 1011.9
20260504190603 83 165 5.2 13.0 0.00 0.00 0.00 55 1011.8
20260504190504 82 109 5.2 13.0 0.00 0.00 0.00 56 1011.8
20260504190404 82 154 6.1 13.0 0.00 0.00 0.00 55 1011.8
20260504190301 82 189 7.0 13.0 0.00 0.00 0.00 55 1011.8
20260504190200 82 189 7.8 13.0 0.00 0.00 0.00 55 1011.8
20260504190059 82 202 8.7 13.0 0.00 0.00 0.00 55 1011.8
20260504185956 82 203 7.8 14.8 0.00 0.00 0.00 56 1011.7
20260504185855 82 259 7.0 14.8 0.00 0.00 0.00 55 1011.8
20260504185754 82 234 7.8 14.8 0.00 0.00 0.00 54 1011.9
20260504185652 82 206 7.8 14.8 0.00 0.00 0.00 54 1011.8
20260504185551 82 227 7.8 14.8 0.00 0.00 0.00 53 1011.9
20260504185449 83 206 7.8 14.8 0.00 0.00 0.00 53 1011.9
20260504185348 83 190 7.0 14.8 0.00 0.00 0.00 53 1011.8
20260504185246 83 188 7.8 14.8 0.00 0.00 0.00 52 1011.9
20260504185146 83 214 7.8 14.8 0.00 0.00 0.00 52 1011.9
20260504185045 84 261 7.8 14.8 0.00 0.00 0.00 54 1011.9
20260504184944 84 224 6.1 13.9 0.00 0.00 0.00 53 1011.9
20260504184842 83 173 4.3 14.8 0.00 0.00 0.00 54 1011.9
20260504184740 84 109 3.5 14.8 0.00 0.00 0.00 53 1011.9
20260504184638 84 202 2.6 14.8 0.00 0.00 0.00 53 1011.9
20260504184540 84 117 2.6 14.8 0.00 0.00 0.00 55 1012.0
20260504184437 83 189 5.2 14.8 0.00 0.00 0.00 54 1012.0
20260504184339 83 117 5.2 14.8 0.00 0.00 0.00 55 1012.0
20260504184239 82 142 5.2 14.8 0.00 0.00 0.00 55 1012.0
20260504184138 82 107 7.0 14.8 0.00 0.00 0.00 54 1012.0
20260504184039 82 135 9.6 14.8 0.00 0.00 0.00 54 1012.0
20260504183938 82 161 8.7 14.8 0.00 0.00 0.00 54 1012.0
20260504183837 82 206 7.0 13.0 0.00 0.00 0.00 54 1012.0
20260504183737 82 210 6.1 11.3 0.00 0.00 0.00 55 1012.0
20260504183638 82 213 6.1 11.3 0.00 0.00 0.00 52 1012.0
20260504183537 82 202 6.1 11.3 0.00 0.00 0.00 52 1011.9
20260504183437 83 248 7.0 11.3 0.00 0.00 0.00 52 1012.0
20260504183337 83 235 7.0 11.3 0.00 0.00 0.00 51 1011.9
20260504183238 84 226 6.1 12.2 0.00 0.00 0.00 52 1012.0
20260504183137 84 214 5.2 12.2 0.00 0.00 0.00 54 1012.0
20260504183039 84 162 4.3 13.9 0.00 0.00 0.00 55 1011.9
20260504182938 83 106 3.5 13.9 0.00 0.00 0.00 56 1011.8
20260504182838 83 149 3.5 13.9 0.00 0.00 0.00 56 1011.8
20260504182737 82 276 3.5 13.9 0.00 0.00 0.00 54 1011.8
20260504182639 82 233 3.5 13.9 0.00 0.00 0.00 54 1011.9
20260504182537 82 220 3.5 13.9 0.00 0.00 0.00 54 1011.8
20260504182438 82 233 5.2 13.9 0.00 0.00 0.00 54 1011.9
20260504182335 82 227 7.0 13.9 0.00 0.00 0.00 54 1012.0
20260504182234 82 210 7.0 13.9 0.00 0.00 0.00 54 1012.1
20260504182132 82 162 7.8 13.9 0.00 0.00 0.00 55 1012.1
20260504182030 82 168 7.8 13.9 0.00 0.00 0.00 55 1012.1
20260504181932 81 178 7.0 13.9 0.00 0.00 0.00 56 1012.2
20260504181831 81 154 7.0 13.9 0.00 0.00 0.00 57 1012.2
20260504181730 81 165 6.1 13.9 0.00 0.00 0.00 58 1012.2
20260504181627 81 158 6.1 13.9 0.00 0.00 0.00 58 1012.2
20260504181526 80 172 5.2 13.9 0.00 0.00 0.00 58 1012.2
20260504181425 80 190 6.1 13.9 0.00 0.00 0.00 57 1012.3
20260504181323 81 203 8.7 13.9 0.00 0.00 0.00 56 1012.3
20260504181222 81 182 7.8 13.9 0.00 0.00 0.00 55 1012.3
20260504181120 82 142 6.1 13.9 0.00 0.00 0.00 56 1012.3
20260504181020 82 182 7.8 13.9 0.00 0.00 0.00 55 1012.3
20260504180918 82 193 7.0 13.9 0.00 0.00 0.00 56 1012.3
20260504180816 82 231 5.2 13.9 0.00 0.00 0.00 56 1012.3
20260504180715 82 61 6.1 13.9 0.00 0.00 0.00 56 1012.3
20260504180613 82 56 7.0 13.9 0.00 0.00 0.00 56 1012.3
20260504180513 82 172 7.0 13.9 0.00 0.00 0.00 55 1012.3
20260504180410 82 110 7.8 13.9 0.00 0.00 0.00 57 1012.4
20260504180309 81 168 6.1 13.9 0.00 0.00 0.00 57 1012.4
20260504180207 81 166 5.2 10.4 0.00 0.00 0.00 57 1012.4
20260504180106 81 209 7.0 10.4 0.00 0.00 0.00 57 1012.4
20260504180003 81 188 6.1 10.4 0.00 0.00 0.00 56 1012.5
20260504175904 82 151 5.2 9.6 0.00 0.00 0.00 57 1012.5
20260504175803 82 124 5.2 9.6 0.00 0.00 0.00 57 1012.6
20260504175702 82 124 4.3 9.6 0.00 0.00 0.00 57 1012.5
20260504175603 82 99 3.5 9.6 0.00 0.00 0.00 56 1012.6
20260504175503 82 165 3.5 9.6 0.00 0.00 0.00 58 1012.5
20260504175403 81 104 3.5 9.6 0.00 0.00 0.00 58 1012.5
20260504175304 81 197 4.3 9.6 0.00 0.00 0.00 57 1012.4
20260504175202 81 180 4.3 9.6 0.00 0.00 0.00 57 1012.6
20260504175102 81 220 3.5 9.6 0.00 0.00 0.00 59 1012.6
20260504175004 80 58 4.3 9.6 0.00 0.00 0.00 58 1012.6
20260504174904 80 203 4.3 13.0 0.00 0.00 0.00 57 1012.5
20260504174802 80 221 4.3 13.0 0.00 0.00 0.00 59 1012.6
20260504174702 80 223 3.5 13.0 0.00 0.00 0.00 60 1012.6
20260504174604 79 148 5.2 13.0 0.00 0.00 0.00 59 1012.6
20260504174503 79 123 7.0 13.0 0.00 0.00 0.00 58 1012.6
20260504174402 79 72 5.2 13.0 0.00 0.00 0.00 58 1012.6
20260504174302 80 162 5.2 13.0 0.00 0.00 0.00 57 1012.6
20260504174202 80 147 5.2 13.0 0.00 0.00 0.00 56 1012.7
20260504174102 80 87 5.2 13.0 0.00 0.00 0.00 57 1012.7
20260504174002 81 145 6.1 13.0 0.00 0.00 0.00 56 1012.7
20260504173904 81 172 5.2 12.2 0.00 0.00 0.00 56 1012.7
20260504173803 81 179 6.1 12.2 0.00 0.00 0.00 57 1012.7
20260504173702 81 123 5.2 12.2 0.00 0.00 0.00 56 1012.8
20260504173602 81 165 6.1 12.2 0.00 0.00 0.00 55 1012.8
20260504173504 81 158 7.0 12.2 0.00 0.00 0.00 56 1012.8
20260504173402 81 173 7.0 12.2 0.00 0.00 0.00 55 1012.8
20260504173303 82 186 6.1 13.9 0.00 0.00 0.00 55 1012.7
20260504173203 82 180 4.3 13.9 0.00 0.00 0.00 57 1012.8
20260504173102 81 255 5.2 13.9 0.00 0.00 0.00 57 1012.8
20260504173002 81 221 5.2 13.9 0.00 0.00 0.00 56 1012.9
20260504172903 81 209 4.3 13.9 0.00 0.00 0.00 56 1012.8
20260504172802 80 175 4.3 13.9 0.00 0.00 0.00 55 1012.8
20260504172703 81 185 4.3 13.9 0.00 0.00 0.00 55 1012.9
20260504172603 80 175 4.3 13.9 0.00 0.00 0.00 57 1013.0
20260504172505 80 206 8.7 13.9 0.00 0.00 0.00 57 1012.9
20260504172402 81 235 8.7 13.9 0.00 0.00 0.00 56 1013.0
20260504172303 81 224 6.1 13.9 0.00 0.00 0.00 57 1013.0
20260504172203 81 183 5.2 13.9 0.00 0.00 0.00 57 1013.0
20260504172102 80 135 6.1 13.9 0.00 0.00 0.00 57 1013.0
20260504172004 80 192 7.0 13.9 0.00 0.00 0.00 56 1013.1
20260504171902 80 197 5.2 13.9 0.00 0.00 0.00 57 1013.1
20260504171802 80 212 6.1 13.0 0.00 0.00 0.00 56 1013.1
20260504171703 80 183 7.8 13.0 0.00 0.00 0.00 56 1013.1
20260504171603 80 203 7.8 13.0 0.00 0.00 0.00 56 1013.2
20260504171506 80 206 6.1 13.0 0.00 0.00 0.00 55 1013.1
20260504171403 80 159 6.1 12.2 0.00 0.00 0.00 55 1013.1
20260504171303 80 164 7.0 13.0 0.00 0.00 0.00 54 1013.1
20260504171204 81 130 7.0 13.0 0.00 0.00 0.00 55 1013.2
20260504171103 81 161 6.1 13.0 0.00 0.00 0.00 56 1013.2
20260504171002 81 165 6.1 13.0 0.00 0.00 0.00 56 1013.1
20260504170903 80 192 6.1 13.0 0.00 0.00 0.00 56 1013.2
20260504170804 80 158 7.0 13.0 0.00 0.00 0.00 57 1013.3
20260504170701 80 176 6.1 13.0 0.00 0.00 0.00 57 1013.2
20260504170602 80 172 4.3 13.0 0.00 0.00 0.00 57 1013.1
20260504170505 80 134 4.3 13.0 0.00 0.00 0.00 57 1013.1
20260504170404 80 309 5.2 13.0 0.00 0.00 0.00 57 1013.1
20260504170303 80 195 6.1 12.2 0.00 0.00 0.00 58 1013.1
20260504170202 80 238 7.8 12.2 0.00 0.00 0.00 58 1013.3
20260504170104 80 199 7.8 12.2 0.00 0.00 0.00 57 1013.2